GFSGBSN_850_dewp_093.txt.gz
Dewpoint
9 10 10 8 6 3 -1 -8 -9 -7 -5 -5 -5 -14 -6 2 0 -6 -4 -5 -3 -2 -8 -10 -8 -0 -0 -1 0 1 1 2 2 3 5 4 5 6 6 6 6 8 6 7 9 8 8
9 10 10 10 9 6 3 -3 -10 -8 -6 -5 -5 -10 -10 -2 -3 -7 -7 -6 -3 -2 -9 -8 -7 -2 -1 -1 0 1 2 3 3 4 5 3 5 5 5 6 6 6 6 6 7 8 8
9 9 10 10 10 9 6 1 -8 -9 -7 -6 -6 -7 -12 -2 -3 -7 -7 -5 -2 -6 -6 -6 -2 -0 -1 -1 0 1 3 3 4 5 5 6 4 6 4 6 4 5 7 6 5 8 8
8 8 9 9 10 10 8 4 -4 -9 -8 -6 -7 -9 -10 -2 -3 -7 -7 -1 -0 -7 -3 -2 -1 -0 -2 -0 -0 1 3 4 4 5 5 4 3 4 4 4 5 7 6 7 7 7 7
8 8 9 9 10 10 9 5 -0 -9 -8 -6 -8 -10 -9 -2 -3 -6 -6 -2 -1 -1 -2 -1 -1 -1 -1 -0 0 2 4 5 3 3 2 2 0 3 3 3 6 5 9 7 7 7 8
10 8 8 9 9 10 9 6 2 -8 -8 -6 -6 -9 -8 -2 -3 -6 -5 -4 -0 -1 -2 -0 -1 -1 -1 0 2 2 3 4 2 1 0 1 3 4 3 4 6 6 7 7 7 7 7
8 9 8 7 9 9 10 7 4 -5 -8 -5 -5 -9 -7 -2 -3 -5 -4 -1 2 -0 -1 -1 -1 -1 0 1 2 2 3 3 2 2 3 4 4 5 4 3 2 2 2 3 5 6 6
8 8 9 8 7 9 10 7 5 -2 -8 -5 -5 -8 -4 -1 -3 -4 -1 -0 2 1 1 -1 -0 0 1 1 2 1 2 3 3 4 3 4 4 3 3 2 2 2 2 3 5 6 6
7 8 8 9 6 8 9 8 6 -2 -8 -5 -4 -9 -2 -0 -2 -2 -1 -1 -0 1 2 1 -0 -1 0 2 2 1 3 2 2 4 4 4 5 4 3 3 2 2 3 2 6 5 6
5 7 7 8 8 7 9 9 6 -1 -8 -5 -5 -8 -1 -0 2 1 1 -4 -1 1 -1 1 1 -0 1 1 2 2 3 3 0 4 4 4 3 3 4 4 2 4 2 3 4 5 7
2 5 7 8 9 6 9 9 6 0 -8 -5 -5 -7 -0 1 2 3 2 -2 -4 1 -2 -1 2 -1 1 1 1 2 0 3 2 2 2 3 4 4 4 3 1 3 2 4 5 4 3
-1 4 6 6 8 6 7 9 8 1 -8 -5 -6 -3 1 2 2 2 -0 -3 0 1 -3 2 2 2 2 -0 0 2 2 2 2 1 2 3 3 3 3 3 2 1 3 3 2 3 5
-2 1 4 6 7 8 8 9 7 0 -7 -5 -7 -1 2 2 3 -0 -1 2 1 -2 -1 1 2 1 1 1 1 2 3 3 4 3 3 2 3 3 3 4 3 2 4 6 5 4 4
-2 -1 1 3 6 7 8 8 6 -1 -7 -5 -7 1 2 2 1 -1 3 1 -2 1 2 0 1 1 2 1 1 2 1 3 2 3 4 2 -0 4 3 4 4 4 4 5 5 6 3
-2 -3 -1 2 6 6 8 8 6 -3 -7 -5 -2 2 2 2 -1 1 3 2 -1 2 2 3 2 3 3 2 1 1 1 1 -1 1 5 4 3 3 3 2 2 3 4 2 5 4 2
-2 -3 -1 0 4 6 8 8 5 -2 -6 -6 -1 2 2 2 0 3 3 3 1 2 1 1 2 2 2 2 3 2 1 -1 -0 -1 -0 3 4 4 3 3 4 4 3 4 6 7 5
-2 -2 -2 -2 4 5 8 8 6 -3 -5 -5 2 5 4 2 2 4 -1 3 1 -0 -0 1 2 2 -1 -1 3 2 1 -0 -2 1 -0 4 5 6 4 5 5 6 6 5 4 3 2
-1 0 -1 1 5 5 8 8 5 -5 -5 -1 3 4 4 2 4 4 2 1 -1 0 0 1 1 1 2 1 -0 -1 2 0 1 2 4 4 6 6 7 4 3 3 5 5 4 5 2
-1 0 -1 2 5 6 7 8 4 -7 -5 -1 4 4 3 3 4 3 -0 -3 -0 1 1 1 2 1 -1 -1 0 -2 -3 -0 -1 2 4 4 5 6 6 6 5 6 5 5 5 4 2
0 1 1 4 4 6 7 7 3 -7 -5 -2 3 3 1 3 3 -0 -1 -3 -1 -1 -0 0 -1 -1 -1 -0 -2 -2 -4 -3 -4 1 1 3 4 5 5 5 5 6 4 4 6 6 4
1 1 2 4 4 6 7 8 3 -6 -6 -1 2 1 -2 2 1 -3 -7 -5 -4 -0 -0 -2 -1 -0 -3 -1 -2 -2 -6 -5 -2 1 3 3 4 5 4 4 5 6 5 5 6 5 4
1 1 2 4 4 6 7 7 2 -6 -6 1 -2 -3 -2 -4 -3 -3 -3 -6 -5 -4 -3 -5 -1 -5 -6 -5 -6 -4 -3 -4 -2 -1 1 2 4 4 4 4 5 4 4 4 5 5 5
1 1 3 4 4 6 7 7 3 -5 -6 0 -2 -5 -9 -5 -6 -6 -4 -7 -4 -6 -7 -7 -6 -6 -6 -4 -4 -4 -5 -5 -4 -2 -1 0 2 -0 4 5 5 5 4 4 2 3 4
-1 2 2 4 4 5 7 8 5 -5 -7 -4 -3 -7 -8 -7 -7 -7 -6 -7 -4 -6 -6 -7 -7 -7 -5 -5 -7 -5 -5 -5 -5 -1 -2 -1 -1 -0 2 5 5 1 -1 2 2 1 1
-2 1 2 3 4 5 6 8 3 -5 -6 -5 -9 -12 -11 -7 -9 -8 -6 -7 -7 -7 -7 -6 -5 -5 -5 -5 -3 -1 -1 -2 -0 -4 -0 -2 -1 -0 3 5 3 -2 -3 2 2 2 0
-5 -3 1 3 4 6 6 7 2 -5 -7 -7 -14 -10 -11 -9 -10 -9 -8 -8 -7 -6 -4 -4 -5 -6 -3 -2 -1 -1 -0 -1 1 3 -0 -1 -1 1 3 5 4 -1 -4 -4 -4 -0 0
-4 -1 3 3 4 5 6 7 -2 -5 -7 -8 -9 -12 -10 -8 -7 -8 -7 -7 -6 -6 -4 -5 -5 -5 -3 -2 -1 -1 -0 -2 0 3 2 2 2 1 2 4 2 -1 -4 -3 -2 -2 1
-0 -1 2 2 3 4 6 7 -5 -4 -8 -10 -9 -13 -10 -7 -5 -6 -6 -6 -5 -6 -4 -4 -3 -3 -3 -3 -3 -3 -2 -1 -1 -1 2 2 3 3 2 3 3 -2 -2 -2 -1 -1 -0
-1 1 2 3 3 4 5 -0 -4 -4 -7 -8 -9 -11 -10 -11 -4 -5 -5 -6 -6 -5 -4 -4 -4 -4 -3 -2 -4 -5 -2 -4 -3 -1 -3 0 2 3 5 3 2 2 -0 -1 -1 -2 -1

GFSGBSN_850_dewp_096.txt.gz
Dewpoint
9 9 9 9 9 9 9 7 3 -3 -8 -7 -6 -6 -6 -6 1 -6 -7 -6 -4 -3 -8 -8 -3 -3 -3 -1 0 1 2 3 3 4 4 3 6 6 6 7 6 8 8 8 9 8 8
9 9 9 9 9 9 9 8 6 0 -8 -7 -7 -7 -11 -6 -2 -6 -7 -4 -5 -6 -7 -8 -3 -2 -1 -1 0 1 2 3 4 6 3 3 5 5 7 6 6 7 8 6 8 9 9
8 9 8 9 9 9 9 9 7 3 -7 -8 -7 -8 -11 -4 -2 -7 -5 -4 -7 -5 -7 -2 -1 -2 -1 -0 -0 1 3 3 5 5 2 2 4 5 5 6 6 7 7 7 7 8 8
8 8 10 9 9 9 9 9 8 4 -4 -8 -6 -8 -10 -4 -3 -6 -4 -3 -3 -4 -2 -1 -1 -1 -2 -1 1 4 4 4 5 5 4 3 4 5 5 5 5 7 6 8 7 8 8
8 8 8 9 9 8 9 9 9 5 -1 -8 -6 -6 -10 -4 -2 -6 -5 -2 -3 -2 -2 -1 -1 -1 -1 0 2 3 4 3 3 4 3 3 4 4 4 5 6 6 8 7 7 7 8
6 7 8 8 8 9 8 9 9 7 1 -8 -6 -5 -10 -4 -2 -5 -5 -4 -2 -2 -2 -2 -2 -2 -1 1 2 2 3 2 2 1 1 1 2 3 3 4 7 6 7 7 6 7 8
4 5 6 7 8 9 9 7 9 8 3 -8 -6 -5 -9 -3 -3 -5 -5 -2 1 -1 -1 -1 -0 -1 0 1 2 2 3 2 2 0 2 3 2 4 4 3 3 3 6 6 5 5 7
1 2 4 6 7 8 9 9 8 8 4 -5 -7 -4 -9 -3 -3 -4 -3 -1 2 0 -0 -1 -1 -1 1 2 1 1 2 2 2 4 3 2 2 4 4 3 2 3 3 4 5 5 6
1 -1 -9 3 4 6 7 9 8 8 6 -4 -7 -4 -8 -2 -2 -2 -1 -2 -0 2 1 1 -0 -2 0 1 1 0 3 2 3 4 3 2 4 3 3 3 3 2 2 4 6 7 6
0 0 -5 -14 1 4 5 8 8 8 7 -3 -7 -4 -7 -1 -1 0 -1 -2 -1 2 -3 -1 1 -1 0 1 0 0 2 3 0 4 3 3 3 3 4 4 2 4 2 2 6 7 8
-0 -0 -0 -10 -5 2 3 7 8 7 8 -4 -7 -5 -5 -0 2 1 1 -4 -2 0 -5 -4 2 -0 1 1 0 2 -0 3 2 3 1 2 4 5 4 3 2 3 2 4 5 4 3
-5 -1 -0 -2 -4 2 2 6 7 7 7 -7 -5 -6 -3 0 1 2 1 -3 -3 -1 -8 2 3 3 3 0 0 1 2 2 2 1 2 3 2 3 3 3 2 1 3 3 6 6 7
-1 -1 -1 -1 -10 -2 -1 5 6 7 7 -6 -4 -6 -1 0 2 1 -1 -2 -0 -5 -2 0 3 2 1 1 1 2 3 2 2 1 0 1 2 3 3 3 2 3 7 7 7 7 7
-0 -1 -1 -1 -8 -6 -4 3 5 7 7 -9 -4 -4 0 1 3 -0 -0 -1 -9 -1 1 -1 1 1 2 1 1 2 1 3 2 2 3 1 -1 4 3 3 3 4 6 6 5 6 4
-1 -1 -2 -1 -2 -3 -2 1 4 7 5 -6 -4 1 1 2 1 0 3 -0 -6 0 1 3 2 3 2 2 0 1 2 1 0 1 5 4 3 2 3 3 2 4 5 2 4 3 3
-0 -1 -2 -1 -1 -1 -1 -0 4 6 5 -4 -2 2 1 2 0 2 3 1 1 1 1 1 2 2 2 2 2 2 2 -0 -0 -1 -1 2 6 3 3 3 4 3 2 6 5 7 6
-0 -1 -2 -1 -2 -2 0 0 5 5 6 -3 2 2 3 2 1 3 2 -1 1 -0 -0 1 2 2 0 0 2 2 1 -1 -1 1 -0 1 4 4 5 5 5 5 5 4 3 3 4
-1 -1 -2 -1 -1 -0 1 -2 4 5 0 0 3 5 4 2 3 3 3 2 -1 0 0 1 1 1 2 0 0 1 2 1 1 1 1 2 5 6 4 5 4 4 4 4 5 4 2
-1 -1 -2 -0 -0 0 1 1 4 5 -2 2 4 3 3 2 3 4 2 -3 -1 1 1 1 2 1 0 -0 0 -1 -3 -2 -2 1 3 3 5 5 5 5 5 6 5 4 4 3 2
-2 -2 -2 -0 -1 1 1 4 4 5 -1 -0 2 3 3 3 3 2 0 -2 -1 -1 0 1 -0 -1 -1 -0 -2 -1 -5 -4 -2 1 2 2 3 4 4 5 5 6 6 5 5 5 3
-2 -2 -2 0 1 1 3 4 5 6 -2 -1 2 0 1 3 2 0 -3 -3 -1 0 -1 -1 -1 -2 -3 -2 -3 -2 -5 -5 -1 0 1 2 2 3 3 3 5 5 6 6 6 5 4
-2 -1 0 2 2 2 5 4 5 5 -2 2 1 -1 -2 -2 -2 -0 -5 -5 -5 -3 -1 -2 -2 -6 -7 -4 -5 -5 -4 -4 -3 -2 -0 0 2 -1 0 2 3 4 5 6 6 5 4
-1 0 1 1 2 2 4 4 5 4 -1 1 -2 -4 -7 -4 -4 -5 -4 -7 -4 -5 -6 -7 -6 -7 -7 -6 -5 -5 -5 -5 -5 -3 -2 -1 -1 -3 -1 1 4 3 3 4 4 4 5
-0 -0 -0 1 2 4 4 4 5 2 -4 -3 -3 -7 -9 -6 -6 -6 -5 -6 -5 -8 -6 -7 -7 -7 -6 -5 -6 -5 -5 -5 -5 -2 -3 -2 -2 -1 -2 4 5 2 -0 2 3 2 2
-0 -1 -1 -3 2 4 4 5 5 0 -5 -3 -4 -8 -9 -6 -8 -7 -7 -5 -5 -7 -6 -6 -5 -5 -5 -5 -3 -2 -2 -3 0 -2 -2 -3 -2 -1 1 3 3 -1 -3 2 3 2 0
-0 -1 -4 -2 3 3 3 4 6 1 -4 -3 -4 -8 -8 -8 -9 -8 -8 -8 -7 -5 -5 -4 -5 -6 -3 -2 -2 -1 -1 -1 1 1 -1 -1 -1 -1 1 4 3 -0 -3 -4 -2 0 1
-0 -2 -5 -1 3 3 4 5 5 -1 -3 -5 -7 -7 -9 -8 -6 -7 -8 -8 -8 -6 -4 -5 -5 -4 -3 -2 -1 -1 -0 -2 -0 2 1 0 -0 -1 -1 1 2 1 -1 -3 -1 -3 1
-1 -1 -3 -1 3 3 5 5 5 -0 -3 -4 -9 -11 -9 -7 -5 -5 -6 -7 -6 -7 -4 -4 -4 -4 -3 -3 -4 -3 -2 -2 -1 -2 1 1 1 1 2 2 3 2 0 1 -0 -1 -1
-2 -1 -4 -0 3 3 5 5 5 -0 -3 -3 -6 -7 -11 -11 -3 -4 -5 -6 -8 -7 -5 -5 -5 -4 -3 -3 -5 -5 -2 -6 -4 -2 -4 2 1 2 2 0 2 1 1 -0 1 1 1

GFSGBSN_850_dewp_099.txt.gz
Dewpoint
9 9 9 9 9 9 9 9 9 9 4 -8 -7 -6 -8 -12 -4 -5 -7 -5 -5 -8 -8 -7 -2 -2 -2 -1 -0 0 2 3 4 5 3 3 6 6 6 5 5 5 7 8 9 8 8
8 8 9 9 9 9 9 9 9 9 8 -3 -8 -6 -8 -12 -4 -6 -6 -4 -7 -8 -6 -3 -2 -3 -1 -0 0 2 2 3 4 4 2 3 4 5 6 6 4 5 8 7 8 8 8
7 7 7 8 8 9 9 9 9 9 9 4 -9 -6 -6 -11 -4 -6 -5 -3 -7 -8 -3 -1 -1 -2 -1 -0 1 4 3 5 5 4 3 1 4 5 6 5 5 7 6 6 7 8 8
5 5 6 7 7 8 9 10 9 9 9 7 -7 -7 -6 -10 -4 -5 -4 -4 -6 -5 -1 -1 -1 -1 -3 -1 2 4 3 4 6 6 5 4 3 4 5 6 6 7 6 7 7 7 7
3 4 4 5 6 7 8 9 9 9 8 8 -3 -8 -5 -9 -3 -5 -5 -4 -3 -3 -1 -1 -1 -1 -1 0 2 3 3 3 3 5 3 2 4 4 4 6 7 6 8 7 6 7 7
2 1 1 1 3 5 6 7 8 9 9 8 3 -8 -5 -9 -2 -4 -5 -4 -2 -2 -2 -1 -2 -3 -0 1 2 2 2 2 1 1 1 2 1 3 3 4 6 7 7 7 7 7 7
2 2 2 -2 -2 1 4 5 7 8 9 8 6 -8 -4 -8 -2 -4 -5 -5 -2 -2 -1 -1 -0 -1 0 1 2 2 2 2 2 -0 2 2 3 5 4 3 3 4 6 6 6 6 7
0 1 1 1 -2 1 3 3 4 7 8 8 7 -6 -4 -7 -2 -4 -4 -2 0 -1 -1 -1 -1 0 1 1 1 1 2 2 2 2 2 0 2 4 4 3 3 3 5 4 5 6 6
1 1 0 0 0 -1 1 3 -0 3 6 8 8 -8 -4 -6 -1 -3 -3 -2 -0 1 1 1 -0 -2 0 0 0 1 2 2 3 3 2 0 3 3 3 3 3 2 3 3 5 6 6
1 0 0 0 -0 -2 -2 1 -1 4 6 8 7 -5 -4 -2 -2 -1 -2 -1 -0 2 -3 -2 2 -1 -0 1 -1 0 1 2 -0 3 3 3 2 3 3 4 2 4 2 2 7 7 8
1 1 0 1 0 0 -7 -1 -5 3 6 7 7 -2 -4 -0 1 0 0 -1 -1 -1 -4 -5 2 -0 1 1 0 1 0 3 2 3 0 0 4 4 4 3 2 3 2 3 7 5 4
0 1 1 1 0 -0 -2 -1 -9 -2 5 6 7 -0 -3 0 2 1 1 -3 -3 -1 -7 2 2 3 2 1 0 2 2 2 2 1 2 2 2 3 3 2 2 1 3 5 6 5 8
1 0 0 1 1 -0 -1 -2 -15 -10 4 6 6 -0 -2 1 1 1 0 -4 1 -1 -2 1 3 3 2 1 1 1 2 2 1 0 -1 0 2 2 3 3 2 4 4 8 7 8 6
-0 -1 -1 0 1 0 -1 -2 -13 -10 4 5 4 -1 1 2 3 0 -3 1 2 -4 1 -2 1 1 2 1 1 2 1 3 1 1 1 2 -0 3 2 2 3 4 6 5 6 6 6
-1 -1 -1 0 1 1 -1 -2 -6 -9 4 5 2 -2 3 3 3 -1 1 2 0 -2 0 2 2 3 2 2 1 2 2 1 0 1 2 3 2 0 2 3 2 4 4 4 6 3 2
-0 1 -0 0 0 0 -1 -2 -3 -2 3 4 1 2 3 3 1 2 2 4 -1 0 1 1 1 1 2 2 2 2 1 -0 -0 0 -1 1 3 2 2 3 4 3 3 5 5 7 6
1 -0 1 -0 -0 -2 -2 -2 -3 1 3 3 2 3 3 2 1 2 3 2 0 0 0 1 1 2 1 1 1 2 1 -1 -0 0 -1 1 4 3 5 5 4 5 4 4 4 5 4
-0 0 -0 0 -1 -2 -3 -3 -1 1 2 2 2 4 3 2 3 3 3 2 -0 0 0 1 0 1 1 -0 0 2 2 1 0 1 1 1 3 4 3 4 4 5 4 4 5 5 1
0 1 -0 -2 -0 -2 -5 -3 -0 1 2 2 3 3 3 3 3 4 3 1 -0 1 0 1 1 0 -0 -0 -0 -1 -1 -2 -3 0 2 2 4 4 2 5 4 6 5 4 3 3 2
-0 -1 -1 -0 -2 -3 -2 -1 1 1 3 2 3 3 3 3 3 3 2 -2 -2 -0 1 1 0 -0 -1 -0 -1 -1 -3 -3 -1 1 2 1 2 2 2 4 4 5 6 4 4 5 3
-2 -2 -2 -2 -1 -2 0 0 1 2 3 3 3 2 3 3 3 3 -1 -2 -0 0 -1 -0 -1 -2 -1 -1 -2 -1 -5 -6 -3 -0 0 1 0 1 2 3 3 4 5 6 5 4 3
-2 -0 -1 -1 0 1 2 1 2 2 3 3 2 -1 2 1 1 2 -1 -4 -1 -1 -1 -1 -3 -5 -5 -3 -4 -5 -5 -5 -5 -3 -1 -1 -2 1 -2 -1 2 4 3 4 5 5 5
-1 -1 0 0 1 1 2 2 3 4 3 3 2 -2 -4 -2 0 0 -2 -7 -4 -4 -6 -5 -4 -6 -7 -8 -5 -5 -5 -5 -5 -4 -2 -2 -1 -1 -3 -2 1 1 2 2 3 4 5
-2 -2 -1 0 -0 1 3 4 4 4 3 3 -1 -3 -6 -4 -4 -4 -4 -5 -4 -8 -5 -7 -8 -8 -6 -6 -6 -5 -5 -5 -5 -4 -3 -2 -2 0 -2 2 2 -1 -1 0 1 3 3
-2 -2 -1 0 -5 2 3 4 4 4 3 2 -1 -7 -9 -5 -7 -6 -6 -4 -6 -6 -6 -5 -5 -6 -6 -5 -3 -1 -2 -2 -1 -1 -3 -4 -2 -1 0 1 -0 -1 -1 1 3 2 0
-2 -2 -0 0 -5 1 3 5 4 3 3 0 -1 -6 -8 -7 -8 -7 -7 -7 -6 -5 -5 -5 -5 -6 -4 -3 -2 -1 -1 -2 1 0 -2 -2 -2 -0 1 1 3 1 1 -1 -1 1 -1
-1 -2 -2 -1 -4 2 3 5 4 4 2 2 -3 -4 -8 -6 -4 -8 -8 -8 -7 -6 -4 -5 -5 -4 -3 -2 -1 -1 -0 -2 0 -0 -0 -1 -1 -1 -2 -1 -0 2 1 -1 -0 -1 -0
-1 -3 -4 -1 -3 1 3 4 4 4 2 -0 -5 -5 -8 -5 -3 -5 -6 -7 -7 -7 -5 -5 -5 -4 -3 -3 -4 -3 -2 -2 -1 -2 -1 -0 0 0 0 1 1 2 -0 0 1 0 1
-2 -4 -5 -2 -4 1 3 3 4 4 1 -7 -8 -8 -9 -8 -3 -4 -5 -6 -6 -6 -6 -5 -6 -4 -4 -3 -5 -6 -2 -6 -4 -3 -4 1 -0 1 -1 -1 0 1 -0 0 1 -0 -0

GFSGBSN_850_dewp_102.txt.gz
Dewpoint
6 7 7 7 8 8 9 9 10 9 9 9 8 1 -8 -7 -10 -3 -6 -6 -8 -8 -9 -7 -2 -1 -1 -1 -0 2 1 2 3 3 3 6 5 6 6 5 5 4 4 6 9 9 8
5 5 4 5 6 7 7 8 9 9 9 9 9 6 -7 -6 -10 -3 -6 -5 -9 -8 -5 -2 -1 -2 -1 -1 1 3 2 3 4 4 4 4 5 6 5 4 3 4 5 5 7 8 8
3 3 4 4 4 4 6 7 8 8 9 9 9 7 -6 -6 -9 -3 -6 -5 -7 -8 -5 -2 -1 -1 -1 -0 2 3 4 5 5 4 5 4 5 6 5 4 4 5 5 4 7 7 7
3 2 2 1 2 3 3 2 4 7 8 9 8 8 -0 -6 -8 -3 -5 -5 -5 -6 -2 -1 -1 -1 -2 0 2 3 2 4 5 4 4 4 4 5 6 5 6 5 4 5 5 7 7
3 2 3 2 2 2 2 3 4 6 7 8 8 8 6 -6 -7 -3 -5 -4 -3 -4 -3 -1 -1 -1 -2 0 2 2 2 2 4 4 2 2 4 4 5 6 7 6 7 6 6 6 7
2 2 2 2 2 1 1 1 3 2 5 7 8 8 6 -2 -6 -3 -5 -5 -2 -2 -3 -2 -1 -2 -1 0 2 2 2 2 1 1 0 2 1 4 3 4 7 8 7 7 6 6 6
2 2 2 1 0 1 1 0 1 2 4 5 6 7 7 1 -5 -2 -4 -5 -5 -3 -3 -1 -0 -1 -0 1 1 1 2 1 0 -0 3 1 5 6 5 4 3 5 6 6 6 6 6
2 2 2 1 2 1 1 -0 -1 -1 -1 5 6 6 6 -2 -5 -2 -4 -3 -1 -3 -1 -2 -2 -0 1 1 1 1 1 1 1 2 0 0 4 4 4 4 2 4 6 6 6 7 6
2 1 1 2 2 1 1 1 -1 -14 -11 4 6 6 6 2 -4 -2 -2 -1 -1 -1 1 -0 -0 -1 -0 0 0 0 1 1 2 3 2 0 2 3 3 2 3 2 4 4 6 7 6
2 2 2 2 1 1 1 1 -1 -9 -16 1 5 6 5 3 -2 -1 -0 -1 0 1 -2 -3 2 -0 -0 1 -1 0 1 2 1 3 3 3 2 3 3 3 2 4 2 2 7 7 7
1 1 1 1 1 1 1 1 0 -6 -19 -2 4 5 6 2 1 1 0 -1 -0 -1 0 -5 2 -0 1 1 0 1 1 2 2 3 1 1 4 4 4 3 2 3 3 3 6 5 6
1 1 0 0 1 0 0 0 0 -7 -17 -13 -0 4 5 2 -1 1 1 -2 -1 1 0 1 2 3 2 1 0 1 2 1 2 1 0 1 1 3 3 2 2 2 4 5 5 5 7
0 0 0 0 0 -0 0 0 -1 -6 -13 -12 0 4 5 1 0 2 1 -2 2 3 -1 2 3 3 2 1 1 1 1 2 0 -0 -1 -0 0 1 3 4 2 3 4 7 8 8 6
1 1 1 1 -0 -0 0 1 -1 -7 -2 -3 3 4 4 1 3 2 -2 1 3 -2 -0 -2 2 2 2 1 1 2 1 2 1 -0 1 1 -1 1 2 3 3 4 3 4 6 6 5
-0 0 0 -1 -0 0 0 0 -1 -7 -1 2 4 3 2 1 3 2 1 3 2 -1 -1 2 2 2 3 2 0 2 2 0 -0 1 1 3 2 -0 1 3 2 4 5 3 3 2 1
-1 -1 -1 -0 -0 -1 0 1 -1 -7 -0 1 2 2 2 1 3 1 2 3 0 -2 1 1 -1 0 1 2 2 2 1 -0 0 0 -1 1 2 1 3 3 4 4 2 6 6 7 6
-1 -1 -1 -0 0 1 0 0 -3 -3 -0 -0 2 2 2 3 2 3 3 2 -0 -0 0 1 -0 2 0 2 1 1 1 -0 1 0 -0 1 3 1 3 4 4 6 7 5 4 4 4
-1 -1 -2 0 1 -0 0 -1 -3 -4 1 2 2 3 2 3 3 3 3 2 0 0 0 0 -0 -0 0 -0 1 1 2 0 -2 1 1 1 3 2 1 2 4 4 6 5 5 5 1
-1 -1 -2 -1 -3 -2 -2 -4 -4 -3 1 2 2 3 3 2 3 3 3 3 1 1 0 0 1 -0 -1 -0 -1 0 -0 -2 -2 -1 2 2 2 2 -2 3 4 6 5 5 5 3 1
-0 -2 -3 -3 -2 -2 -2 -3 -4 -2 -1 2 2 3 3 3 3 2 3 1 0 -0 0 -0 -0 -0 -0 -0 -1 -1 -2 -2 -2 1 1 1 0 -2 -0 -1 2 3 3 3 6 6 3
-0 -2 -2 -1 -1 -1 -2 -2 -2 -3 -1 2 2 2 2 3 3 3 1 -1 -0 1 -1 -0 -0 -0 -0 0 -2 -1 -6 -6 -3 -1 -1 -0 -3 -0 -0 0 2 3 3 3 5 5 4
-0 -2 -2 -1 -0 1 1 1 1 0 -2 3 3 1 3 2 2 2 2 -1 -0 0 -1 -0 -2 -3 -3 -2 -4 -4 -5 -6 -5 -4 -2 -2 -4 -1 -3 -1 -0 1 2 2 3 4 5
-1 -1 -2 -4 -1 1 1 2 2 1 -0 2 3 -0 1 1 1 2 2 -2 -2 -3 -6 -5 -3 -6 -6 -7 -6 -6 -6 -5 -5 -5 -3 -2 -1 -3 -1 -3 1 0 1 2 2 4 4
-1 -1 -1 -4 -1 1 0 1 1 2 2 3 2 -1 -3 -0 0 -0 -3 -5 -4 -8 -5 -7 -7 -9 -6 -6 -6 -5 -5 -5 -5 -4 -4 -2 -3 -1 -1 1 -0 -2 -1 0 1 1 2
-1 -2 -1 -4 -1 -1 -3 0 3 2 3 2 2 -0 -7 -3 -5 -6 -4 -4 -6 -6 -5 -5 -6 -6 -6 -5 -3 -1 -3 -2 -1 -2 -2 -5 -3 -3 -0 1 -2 -1 1 -1 3 4 0
-2 -1 -2 -5 -5 -2 -2 2 4 2 3 3 2 -1 -7 -6 -7 -6 -5 -7 -6 -5 -5 -5 -5 -6 -5 -3 -3 -2 -0 -2 -0 -0 -3 -2 -2 -3 -2 1 2 1 1 1 -1 3 1
-2 -1 -2 -2 -10 -3 -2 3 4 3 2 2 1 -3 -9 -6 -5 -7 -7 -8 -8 -6 -5 -5 -5 -3 -3 -2 -1 -1 -1 -3 0 -1 -1 -2 -2 -2 -2 -1 -2 -1 1 -1 2 -1 1
-1 -2 -2 -2 -9 -4 -2 3 4 4 3 3 -1 -4 -8 -5 -4 -5 -6 -8 -7 -7 -5 -5 -5 -4 -4 -3 -4 -4 -3 -2 -2 -3 -2 -1 -1 -1 -1 -0 -1 1 -0 -0 -0 -0 0
-1 -1 -2 -2 -7 -5 -2 3 4 4 4 3 -0 -5 -7 -8 -3 -4 -4 -6 -7 -8 -6 -5 -8 -5 -5 -4 -6 -6 -3 -7 -4 -3 -3 0 -2 -1 -2 -2 -2 0 -0 0 1 1 1

GFSGBSN_850_dewp_105.txt.gz
Dewpoint
3 4 3 3 3 2 2 3 6 7 8 8 8 8 8 3 -6 -7 -5 -6 -5 -7 -9 -7 -3 -2 -1 -1 -0 1 2 3 2 3 5 5 4 5 5 4 5 5 4 4 4 6 9
3 3 3 2 2 2 2 -1 -7 1 6 8 8 8 8 6 -2 -6 -5 -5 -5 -6 -8 -4 -3 -1 -1 -1 1 2 3 4 5 4 4 4 5 6 4 4 4 3 4 4 4 5 6
2 3 3 3 2 2 1 2 2 3 2 6 7 8 8 8 -1 -5 -7 -5 -5 -5 -6 -3 -2 -1 -1 -1 2 3 3 4 5 2 4 3 5 6 3 4 4 4 4 4 5 5 6
2 2 3 3 3 3 2 1 2 1 1 4 7 8 8 7 2 -2 -7 -4 -4 -3 -4 -3 -2 -1 -2 0 2 2 2 3 4 4 4 3 4 6 5 4 5 5 4 6 4 4 4
2 2 2 2 2 2 1 2 0 -1 -1 -1 6 7 7 7 5 1 -5 -4 -3 -2 -2 -2 -2 -2 -2 -1 1 1 1 2 3 2 1 2 4 5 6 7 7 5 6 6 5 4 5
1 1 1 1 1 1 1 1 1 -8 -11 -17 5 6 7 7 6 2 -4 -3 -4 -2 -1 -1 -2 -1 -3 0 2 1 1 1 1 0 -0 1 2 5 3 4 6 7 7 6 6 4 5
1 1 1 1 1 1 1 1 1 -7 -14 -17 3 4 5 6 6 1 -3 -3 -4 -3 -1 -3 -3 -1 -1 0 1 1 1 1 1 0 2 0 5 6 5 4 3 5 6 6 5 4 6
2 1 2 1 0 0 1 2 2 -1 -11 -15 -2 2 4 5 5 2 -2 -3 -1 0 -0 -2 -3 -2 -0 1 1 1 1 2 1 1 -0 1 5 4 4 4 3 5 6 7 6 6 5
2 2 2 1 1 1 1 1 1 -1 -7 -10 -6 3 4 5 5 2 0 -3 -1 1 1 -1 -1 -2 -1 0 0 -0 1 1 1 2 2 1 2 3 3 2 3 3 5 6 6 6 6
2 1 0 1 1 1 0 1 0 -1 -5 -9 -11 3 5 5 3 1 -1 -1 -0 2 -1 -2 1 -0 -1 0 -1 0 1 2 1 3 2 2 2 3 3 3 2 4 2 3 7 7 8
1 1 1 1 1 0 0 1 0 -1 -2 -5 -12 -4 3 4 3 2 0 -0 0 0 0 -2 1 -0 1 0 -0 1 1 1 2 3 -0 1 3 3 4 3 2 3 3 5 6 5 6
-0 0 1 1 1 1 -0 -0 0 -0 -2 -4 -15 -6 3 3 3 2 1 -0 -1 1 1 1 2 2 2 1 -0 1 1 1 2 1 -0 1 1 3 2 2 2 3 4 5 5 5 7
-0 -0 -0 -0 -1 0 -0 -1 -0 -0 -2 -3 -15 -2 3 3 2 0 1 -2 2 3 -2 1 3 3 2 1 1 1 1 1 0 -2 -2 -1 -0 0 3 4 2 3 4 6 8 8 6
-0 0 0 -0 -0 -1 -0 -0 1 0 -1 -4 -3 -1 3 3 1 2 -1 1 3 2 -1 -2 2 2 2 1 1 1 1 1 1 -0 0 2 -2 -0 2 3 3 4 4 4 6 6 5
-0 0 0 -0 -0 0 1 0 0 1 -0 -7 3 4 3 2 3 2 -1 3 3 2 -2 2 1 2 2 1 0 1 1 0 -1 0 0 3 1 -1 1 3 3 4 6 3 3 1 3
1 1 0 -1 -1 -1 -1 1 1 1 -0 -7 2 2 2 3 3 2 2 3 2 -2 0 1 -0 0 2 2 1 2 1 -1 0 -0 -1 0 3 1 3 3 4 4 4 7 7 6 6
0 1 -0 -1 -3 -3 -0 1 1 1 -2 -1 2 2 2 3 3 0 4 2 1 -1 0 1 -1 2 -1 2 0 1 0 0 -0 0 -0 1 3 0 0 3 4 6 6 5 5 4 5
0 0 -1 -3 -4 -4 -0 1 0 -0 -4 0 2 2 2 3 2 2 3 2 0 1 0 0 -1 -0 -0 0 1 1 1 -0 -2 1 1 1 2 2 1 3 4 3 5 5 6 6 1
0 0 -1 -3 -4 -4 -3 -1 -1 -3 -3 1 1 2 2 2 3 3 2 3 2 1 0 0 0 -0 -1 -1 -1 0 -1 -2 -2 1 2 1 1 -2 -3 -0 1 3 2 3 4 4 2
-1 -0 -0 -2 -0 -0 -2 -3 -2 -4 -4 1 2 2 2 2 3 2 3 2 2 -0 -0 -1 -0 -1 -1 -1 -2 -1 -1 -2 -2 1 1 -0 -1 -2 -1 -4 2 2 2 2 3 6 4
-1 -0 -0 -1 -2 0 0 -1 -2 -2 -4 0 0 2 2 2 3 2 1 1 -0 1 -0 -0 -0 -0 -1 0 -2 -1 -5 -6 -3 -3 -2 -2 -3 -1 -1 -1 -0 -0 1 2 2 3 6
-1 -0 -1 -1 -4 -1 0 -0 -0 -2 -4 1 1 2 2 2 2 2 2 2 -0 -1 0 1 -1 -1 -3 -3 -6 -3 -5 -6 -7 -5 -2 -3 -5 -4 -5 -3 -1 0 -0 0 2 1 2
-1 -1 -1 -1 -3 -5 0 1 0 1 -1 1 -3 2 2 2 2 2 1 1 -2 -2 -6 -5 -3 -5 -4 -6 -7 -6 -7 -5 -5 -6 -3 -3 -3 -4 -2 -3 -0 -1 0 1 2 2 3
-1 -1 -1 -1 -1 -4 0 0 1 1 1 -1 -3 1 -1 1 1 1 -1 0 -3 -6 -5 -6 -8 -8 -5 -6 -6 -5 -5 -4 -3 -3 -4 -3 -3 -2 -1 -3 -2 2 -1 1 2 3 2
-1 -1 -1 -1 -1 -2 -5 -2 -0 1 1 1 1 1 -5 -2 -0 -3 -3 -4 -5 -5 -5 -5 -5 -6 -6 -4 -2 -1 -3 -3 -1 -3 -3 -5 -3 -3 -1 -0 -2 0 1 1 2 4 2
-2 -1 -1 -1 -1 -2 -6 -3 1 3 3 2 1 3 -3 -6 -4 -5 -5 -6 -6 -5 -5 -5 -5 -5 -5 -4 -3 -2 -1 -2 -1 -1 -3 -2 -3 -4 -3 -0 1 -1 0 1 -1 3 2
-3 -2 -2 -2 -2 -2 -7 -4 2 3 2 0 2 2 -1 -7 -4 -6 -6 -7 -8 -6 -5 -5 -5 -4 -3 -2 -1 -2 -2 -3 -1 -1 -2 -3 -3 -2 -2 -1 -3 -5 -0 -1 3 0 1
-3 -3 -2 -2 -2 -3 -7 -2 2 3 1 2 2 1 -1 -6 -4 -5 -6 -8 -7 -7 -5 -5 -5 -4 -4 -3 -4 -4 -3 -2 -3 -3 -3 -3 -3 -2 -2 -1 -2 -0 -1 0 -1 -0 -0
-3 -3 -3 -2 -2 -3 -7 -2 2 3 3 2 2 1 -5 -7 -4 -4 -5 -6 -7 -8 -7 -5 -9 -5 -5 -5 -6 -6 -3 -7 -5 -3 -4 -1 -3 -2 -2 -3 -5 0 -1 -0 1 0 -0

GFSGBSN_850_dewp_108.txt.gz
Dewpoint
3 3 3 3 2 3 3 2 1 -1 1 2 6 8 8 8 8 7 -1 -7 -4 -5 -8 -7 -2 -3 -2 -0 -1 2 3 4 4 4 4 4 5 4 3 3 5 4 4 5 5 6 5
2 2 2 2 3 3 3 3 2 1 1 3 4 7 8 8 8 7 -2 -6 -4 -4 -7 -7 -2 -2 -1 -0 0 2 3 4 4 3 4 5 5 6 4 4 4 4 4 4 4 4 5
2 2 1 2 2 2 3 2 2 0 -0 1 0 6 7 8 7 7 4 -6 -4 -4 -5 -6 -2 -1 -1 -2 1 2 2 3 3 3 4 4 5 6 4 3 4 4 5 4 4 4 4
1 1 1 1 1 1 0 0 1 1 -0 -4 -14 4 6 7 7 7 5 -3 -4 -3 -2 -4 -2 -0 -1 -2 0 1 1 2 4 5 3 4 5 6 5 3 4 3 4 7 4 4 4
1 2 1 1 0 -0 -0 0 -1 -2 -0 -1 -13 -2 4 6 6 6 6 -2 -3 -3 -1 -2 -2 -1 -3 -2 -0 1 1 2 2 3 4 3 5 5 4 5 4 4 5 7 2 5 5
1 2 2 2 2 2 1 0 0 -3 -5 -4 -8 -3 3 4 5 6 6 -0 -4 -4 -2 -2 -1 -0 -3 -1 0 0 1 1 1 1 2 4 3 6 4 5 5 4 4 2 3 4 5
0 0 1 1 2 2 2 1 1 -1 -2 -5 -10 -12 -0 1 3 6 4 -2 -3 -2 -3 -2 -3 -2 -3 -1 0 1 1 1 1 0 3 1 6 5 4 3 3 3 3 -1 4 3 5
1 1 1 2 1 1 1 2 1 0 -1 -2 -6 -11 2 3 4 5 5 -2 -2 -0 1 -2 -2 -2 -1 -0 1 1 1 2 1 1 0 3 4 3 3 3 3 4 4 5 5 4 6
1 1 1 2 2 2 1 1 1 0 -0 -1 -2 -9 3 4 4 5 1 -1 -2 -1 2 0 -1 -1 -1 -0 0 1 1 2 1 1 2 3 2 2 3 2 3 5 4 5 4 5 5
1 1 1 1 2 2 1 0 -0 0 -0 -1 -1 -6 1 3 4 2 -1 -1 -1 1 4 0 1 1 0 1 -1 -0 1 3 1 2 2 1 1 2 2 3 2 3 2 3 5 6 8
0 2 2 1 1 0 -0 -0 -1 -1 -2 -1 0 -2 -11 3 3 2 1 -0 0 0 3 -0 1 -1 1 1 0 1 1 2 1 2 2 2 3 2 3 2 2 3 3 3 5 5 5
0 1 1 1 1 -0 -1 -0 -0 -1 -2 -1 0 -1 -6 1 3 3 1 -0 -0 4 4 2 2 1 1 1 -0 1 1 1 2 1 1 1 0 3 2 2 2 3 4 5 5 5 6
1 0 1 0 1 -0 0 -0 0 -1 -0 1 0 -2 -1 2 3 2 0 -1 5 5 -1 2 3 2 1 1 0 0 0 -1 -1 1 3 -0 -1 0 2 3 2 4 4 6 6 8 4
1 1 0 0 -0 -1 -1 -1 -0 0 1 1 -1 1 -2 -0 3 2 -1 1 4 4 2 -1 2 2 1 0 1 1 1 -0 0 -0 2 2 1 0 1 3 4 3 4 4 3 4 3
0 -0 -1 1 -1 -5 -4 -5 -0 1 1 1 -4 3 2 3 3 3 1 5 3 3 -1 2 2 1 2 1 1 1 1 -0 -1 -0 0 1 0 -1 -0 2 3 6 7 3 4 1 4
0 -1 -0 1 -2 -5 -3 0 -0 1 1 -1 -2 2 2 3 3 2 1 3 2 -1 -0 1 0 -0 -1 1 1 1 -1 -0 0 -1 -1 0 3 1 2 2 2 3 4 7 7 7 4
-1 -0 0 1 -3 -4 -2 0 1 1 -1 -6 -0 2 2 1 3 2 3 3 1 -0 -0 1 -0 0 -2 1 0 0 -0 1 -1 0 -1 0 2 0 0 1 0 2 4 5 6 6 3
-1 -1 -1 0 -2 -1 -4 -1 0 -1 -5 -1 1 2 2 2 2 2 3 1 1 1 1 0 -1 -0 -1 1 1 1 1 -0 -2 1 1 1 2 2 -1 -1 1 1 4 5 6 6 5
-2 -2 -1 0 -2 -4 -1 -2 -1 -3 -4 -0 1 2 2 2 4 3 2 1 1 0 1 0 0 -0 -1 -0 -2 0 0 -2 -1 1 1 -0 2 0 -3 1 -1 1 0 2 3 5 5
-1 -1 -1 -0 -0 -3 -0 0 -2 -3 -5 -3 1 2 2 2 2 2 1 1 1 1 0 -1 -1 -1 -1 -1 -2 -1 -1 -3 -2 0 -0 -1 2 1 -1 -0 0 0 -1 -0 2 4 5
-1 -0 -1 -1 -1 -2 -2 -0 -1 -3 -5 -3 -0 2 2 3 3 1 0 1 0 0 0 -0 -0 -1 -2 -1 -1 -1 -4 -5 -4 -3 -2 -2 -1 -1 -3 -4 -3 -2 -2 -2 2 1 4
-1 -1 -2 -2 -1 -2 -3 0 -1 -3 -3 -2 1 1 2 2 3 1 1 2 0 -1 0 1 0 -0 -2 -5 -7 -4 -4 -5 -7 -5 -3 -3 0 -1 -1 -3 -1 -2 -3 -2 -1 -1 1
-2 -2 -1 -2 -2 -1 -3 0 0 -1 -1 -0 -1 -2 -0 2 3 2 1 1 -2 -2 -5 -5 -2 -2 -2 -5 -6 -6 -6 -5 -4 -3 -3 -2 -1 -0 0 -2 1 2 1 1 1 1 2
-3 -2 -0 -2 -2 -2 -2 -2 1 1 -1 -2 -1 -2 1 2 1 1 -0 -0 -2 -4 -5 -6 -7 -6 -5 -6 -5 -5 -4 -4 -4 -3 -4 -3 -1 -1 1 -0 2 2 -1 1 2 2 2
-3 -2 -1 -1 -1 -2 -2 -3 -1 1 1 1 0 -1 -0 -3 0 -0 -0 -2 -5 -5 -5 -5 -5 -6 -6 -4 -3 -2 -1 -1 -1 -3 -3 -3 -2 -0 0 -1 -2 0 1 1 1 4 2
-6 -5 -1 -1 -2 -2 -2 -2 -4 -1 0 1 1 1 1 -5 -3 -4 -2 -5 -5 -5 -5 -5 -5 -5 -5 -5 -3 -1 -3 -1 -0 -1 -2 -2 -3 -1 -0 -0 -2 1 -0 0 0 2 1
-9 -7 -0 -1 -2 -2 -3 -2 -3 2 3 3 3 -1 1 -4 -4 -5 -5 -6 -7 -6 -5 -5 -5 -4 -4 -3 -3 -2 -3 -3 -1 -1 -1 -2 -2 -1 -2 -1 -5 -6 -2 -0 3 1 1
-11 -7 -1 -1 -2 -3 -3 -4 2 3 3 4 -1 1 2 -3 -5 -5 -6 -7 -7 -6 -6 -5 -5 -4 -4 -2 -1 -2 -2 -2 -2 -3 -2 -3 -2 -1 -2 -0 -2 -5 -1 0 -0 0 0
-10 -7 -2 -1 -2 -3 -4 -5 2 3 2 2 -0 2 -0 -3 -5 -5 -6 -6 -7 -8 -8 -6 -7 -4 -5 -4 -3 -3 -2 -2 -2 -5 -4 -2 -4 -2 -3 -5 -5 0 -0 -0 0 1 -1

GFSGBSN_850_dewp_111.txt.gz
Dewpoint
3 2 3 1 2 2 2 3 2 3 2 2 3 2 6 7 8 8 8 5 -6 -5 -5 -7 -5 -3 -3 -0 -1 0 2 2 5 5 5 5 4 3 4 2 2 3 2 4 5 6 6
2 3 1 1 0 1 1 -0 1 1 1 2 2 -1 5 6 7 8 8 7 -0 -4 -5 -6 -6 -2 4 -0 -1 1 2 3 5 4 4 5 5 5 5 3 3 2 3 4 4 4 5
2 2 2 2 2 1 0 -0 -1 -2 -3 1 2 -1 2 4 7 7 7 6 2 -4 -4 -5 -4 -1 3 -0 -1 0 2 3 4 3 4 5 5 6 4 4 3 3 4 5 4 3 4
1 2 2 2 3 3 3 2 0 -3 -3 -2 1 0 -12 3 6 6 7 6 -1 -4 -3 -3 -3 3 1 -2 -1 0 2 2 4 5 4 3 6 6 5 3 3 3 5 7 3 3 4
1 1 1 1 2 2 3 3 2 0 -1 -2 -1 -2 -13 -2 3 5 6 6 3 -3 -2 -1 1 2 -2 -2 -1 1 2 2 3 3 4 3 5 5 4 4 5 2 4 7 3 4 4
2 1 1 0 1 1 1 1 2 2 1 0 0 -2 -11 -8 -0 3 5 5 -1 -3 -2 -1 2 1 -1 -3 0 1 1 1 3 3 2 4 4 5 5 6 9 5 3 1 3 4 3
1 1 1 1 0 1 1 1 1 1 1 1 2 1 -9 3 3 2 4 -1 1 2 0 -1 -2 -3 -2 -1 -0 1 2 2 2 2 3 3 6 6 3 2 3 3 2 1 -2 3 4
2 1 2 0 1 1 1 1 0 -0 -0 0 1 1 -7 3 4 4 5 1 -0 1 -0 -1 -1 -2 -1 -1 0 1 1 1 1 2 1 2 5 2 2 2 3 3 2 1 3 3 4
1 1 1 1 1 1 1 0 -0 -1 0 -1 0 1 -1 -4 3 4 4 2 -1 -1 1 1 -0 -1 -1 0 -1 0 2 1 0 1 1 3 3 1 2 2 2 2 3 2 3 4 3
1 1 1 1 1 0 1 0 -0 -0 -1 -1 -2 1 0 -10 0 3 1 -1 -1 1 5 2 0 0 1 1 -0 0 2 3 0 2 0 0 -1 1 2 2 1 3 1 2 3 4 4
1 1 1 1 0 0 1 -1 -1 -1 -1 -1 -1 1 1 -7 -1 3 1 0 1 1 7 0 1 -0 1 0 -1 0 2 2 1 -0 1 2 2 2 1 0 2 3 2 2 2 3 3
1 0 1 0 -0 1 -1 -3 -3 -1 -1 -0 0 1 1 -4 -5 2 2 1 1 5 6 2 1 -0 0 -0 -1 -0 0 1 1 -0 -1 -1 -1 1 2 2 1 2 3 2 2 4 6
1 -0 -1 -1 -0 -0 -5 -6 -1 -5 -1 1 1 1 -2 -0 2 3 2 2 5 7 -1 3 2 0 -1 -1 -1 -1 -1 -1 -0 2 3 -0 -2 -2 1 2 0 2 3 6 6 7 4
1 -1 -1 -1 0 -1 -7 -0 0 -1 0 1 1 -2 -4 3 2 3 1 2 6 3 2 -0 1 1 -1 -2 -1 -0 -1 -2 -1 -2 1 1 2 -1 -2 1 3 3 3 6 7 4 1
0 -0 -1 -0 0 -2 -3 -1 0 1 1 0 -4 -3 2 1 -0 3 1 6 4 3 -1 1 1 -0 0 -1 -0 -0 -2 -3 -2 -2 -0 -1 -1 -3 -1 0 1 4 5 3 5 1 1
1 -2 -2 -1 0 -2 -1 -3 1 -1 -3 -6 0 -1 2 3 3 2 2 3 2 -1 -1 0 -2 -1 -3 -0 -1 -2 -4 -1 -0 -1 -2 -1 1 -1 -2 -1 1 2 3 6 5 6 2
1 0 -3 -0 -1 -2 -3 -1 -0 -2 -7 -3 2 1 2 3 3 2 4 3 1 -0 -0 -0 -2 -3 -4 -2 -2 -3 -3 -0 -1 -0 -1 -2 -0 -0 -3 -0 0 1 3 3 5 6 7
1 1 -4 -1 -1 -1 -2 -1 -1 -3 -8 -1 1 3 1 1 2 2 2 1 0 0 0 -0 -2 -2 -3 -2 -1 -2 -2 -1 -1 0 -1 -1 -1 1 -4 -3 -1 -1 1 3 4 7 4
1 1 -5 -2 -1 -1 -2 -3 -1 -2 -7 1 2 1 2 2 4 3 1 0 1 -0 0 -1 -2 -1 -2 -2 -2 -2 -1 -3 -1 -0 0 -2 1 1 -2 1 -1 -1 -1 -1 3 5 6
2 1 -5 -2 -1 -1 -3 -2 -1 -3 -6 0 1 3 2 2 2 3 0 -0 1 0 -0 -1 -2 -3 -3 -3 -3 -3 -2 -3 -2 -1 -2 -2 3 1 -1 -1 -1 -0 -2 -4 1 4 2
2 1 -3 -3 -2 -1 -2 -3 -2 -3 -7 0 1 2 2 3 3 2 -0 0 0 -1 -0 -1 -1 -3 -4 -4 -3 -4 -3 -3 -5 -4 -4 -4 -0 -2 -4 -4 -4 -3 -2 -4 1 1 3
3 1 -1 -4 -1 -1 -1 -1 -1 -3 -5 -1 1 1 -2 3 2 1 1 1 0 -2 -1 -0 -1 -1 -3 -5 -7 -7 -6 -5 -7 -6 -4 -3 1 -0 -0 -3 -2 -3 -5 -5 -3 -1 -1
3 1 -0 -7 -2 -1 -1 -3 -0 -1 -3 -0 -1 -1 1 2 2 1 0 -0 -2 -2 -4 -5 -2 -3 -3 -5 -6 -6 -7 -6 -4 -3 -3 -3 -0 1 0 -2 1 3 -0 0 1 0 2
2 1 0 -9 -2 -1 -1 -2 -1 0 0 -2 0 -2 1 3 1 0 -1 -1 -2 -3 -5 -5 -6 -6 -5 -6 -6 -6 -6 -5 -4 -4 -4 -4 -1 0 1 1 3 1 -1 1 0 1 2
1 2 0 -9 -2 -2 -2 -2 -3 0 1 -1 -0 -0 1 -2 -4 -1 -0 -2 -4 -5 -5 -5 -5 -5 -6 -4 -4 -3 -1 -1 -2 -4 -4 -3 -2 0 1 -3 -3 -1 -1 0 1 2 3
1 2 -1 -9 -2 -2 -2 -2 -2 -3 0 1 1 0 1 1 -3 -3 -2 -3 -4 -5 -5 -5 -5 -5 -3 -6 -5 -0 -5 -1 -1 -1 -2 -3 -4 -0 0 -0 -4 -1 -0 -0 -0 2 1
2 2 -2 -10 -3 -1 -2 -3 -2 -2 -1 -0 0 1 1 0 -3 -4 -4 -4 -6 -6 -5 -5 -5 -5 -4 -5 -4 -4 -5 -3 -2 -2 -2 -1 -1 -0 -3 -1 -7 -3 -2 -0 2 3 1
2 2 -3 -8 -5 -2 -3 -3 -5 -0 3 3 2 2 1 0 -2 -6 -5 -5 -6 -6 -6 -4 -5 -4 -5 -3 -2 -3 -5 -4 -3 -5 -3 -3 -2 -2 -4 -1 -2 -3 -1 0 -0 -0 -0
2 2 -7 -8 -4 -2 -2 -3 -5 1 3 3 3 3 2 -0 -2 -5 -6 -7 -7 -7 -5 -5 -5 -5 -6 -5 -2 -2 -3 -1 -3 -6 -5 -3 -6 -3 -4 -4 -4 -3 -1 -1 -1 -1 -0

GFSGBSN_850_dewp_114.txt.gz
Dewpoint
3 3 2 3 3 2 2 1 -0 -1 1 2 2 4 2 3 5 7 8 8 6 4 -4 -4 -6 -6 -3 2 -0 -0 1 2 4 4 5 5 4 3 4 3 4 4 2 2 2 4 5
3 3 3 3 3 4 3 3 2 -0 -2 2 2 2 2 -7 4 6 7 7 6 5 -3 -3 -4 -6 4 3 -0 0 1 3 4 5 4 4 5 5 5 4 4 3 3 2 3 4 4
3 3 2 2 1 1 2 2 3 1 1 -0 2 2 -2 -10 -9 5 6 6 6 4 -3 -2 -3 -3 4 1 -1 -0 1 2 3 3 4 6 4 5 5 4 3 2 5 4 4 4 4
3 3 2 2 2 1 2 1 1 2 2 1 -1 2 -2 -7 -14 1 5 6 6 4 -2 -2 -2 1 3 -1 -3 -1 1 2 3 4 5 3 5 5 6 4 3 3 3 7 3 4 3
3 2 2 3 2 2 2 1 1 1 1 2 2 -0 -1 -6 -4 -4 2 5 6 5 -1 -1 -0 3 1 -2 -3 -0 1 2 2 3 4 5 3 6 5 5 6 4 6 6 5 4 4
3 2 2 1 0 0 1 2 1 1 1 1 0 1 0 -2 0 3 0 2 4 -1 -2 0 2 1 0 -3 0 1 1 2 3 3 4 4 4 6 4 6 9 8 8 4 5 5 5
3 1 2 2 1 1 1 -0 -0 -0 -1 -0 -1 -0 1 0 -5 4 4 2 0 3 3 1 0 -0 -3 -1 -1 1 1 2 2 3 3 4 6 7 6 4 2 4 3 3 0 4 4
2 2 2 1 1 1 1 0 0 0 -0 -1 -1 -1 1 1 -7 1 3 3 2 2 1 0 -2 -1 -2 -1 0 1 0 1 1 3 2 3 5 2 3 2 2 2 4 4 3 3 4
2 1 2 1 1 1 0 1 -0 -0 -1 -0 -0 0 -0 1 -6 -2 3 4 1 0 2 0 0 -1 -1 -1 -1 1 2 1 1 1 2 2 1 0 1 1 2 3 5 3 4 3 3
2 1 1 1 1 0 1 -1 -0 0 -0 -1 -0 1 0 1 -7 2 2 2 1 2 5 2 0 -0 -1 1 -0 0 2 2 1 1 2 2 -1 -0 1 2 2 4 3 2 2 3 8
2 1 1 0 -0 0 -0 -4 0 2 2 -3 -1 1 1 1 -8 1 3 2 1 1 7 1 1 0 1 1 -0 1 1 2 1 1 1 3 2 3 3 2 1 3 2 2 2 3 3
2 1 0 -2 -0 -0 -1 -1 0 0 -0 -1 0 1 1 1 2 -0 2 2 1 4 6 2 1 0 -0 -1 -2 -0 -0 1 0 -1 -2 -1 -4 -1 2 1 1 0 2 2 2 3 6
2 2 -2 -3 -0 -0 -1 -1 0 0 1 1 1 1 1 -0 2 -0 3 2 5 6 -0 3 1 -1 -1 -1 -1 -1 -1 -1 -0 2 3 0 -2 -3 -0 2 1 2 4 6 6 5 5
3 2 -1 -3 -0 -1 -2 -1 -0 -1 -4 -4 -1 -1 2 2 -0 1 2 3 6 2 2 0 0 -1 -1 -2 -1 -1 -1 -0 -1 -2 2 2 2 -1 -3 0 2 3 5 7 8 8 8
3 2 -0 -3 0 -1 -2 -4 -2 -1 -6 -4 1 1 1 -1 0 1 2 5 5 3 -1 1 -1 0 1 -2 -0 -0 -3 -1 -1 -1 1 2 -1 -3 -2 -3 1 3 4 3 7 3 4
4 3 1 -2 -1 -1 -1 -3 -1 -2 -6 0 0 1 2 2 2 2 4 5 2 -1 -0 0 -1 -2 0 -0 -0 -2 -4 -1 0 -1 -2 -1 2 -1 -3 -2 -0 2 2 5 5 5 4
4 3 1 -3 -1 -1 -1 -3 -2 -2 -8 0 2 2 2 2 2 2 4 3 0 -0 0 1 -2 -4 -3 -2 -3 -4 -3 -1 -1 0 -2 -1 0 1 -2 0 1 3 3 2 5 5 7
4 3 0 -5 -2 -1 -2 -4 -2 -4 -8 -0 1 2 2 2 2 2 4 1 0 0 0 -1 -2 -2 -2 -3 -2 -2 -0 -1 -0 -0 0 -1 -0 2 0 -1 -2 -1 0 3 4 4 5
4 3 1 -4 -3 -2 -3 -3 -3 -7 -7 1 2 2 2 2 4 4 -0 -1 -0 0 0 -1 -2 -3 -3 -2 -2 -2 -1 -3 -2 -0 0 -1 1 0 1 2 -2 -1 -2 -2 2 4 3
4 3 1 -2 -4 -2 -3 -1 -4 -8 -8 -0 1 2 2 2 3 3 1 0 0 0 -0 -2 -2 -4 -4 -3 -5 -3 -2 -3 -3 -2 -2 -2 2 0 0 -1 -2 -0 -2 -3 1 3 1
4 2 1 -1 -5 -2 -3 -2 -3 -4 -8 -0 1 2 2 3 2 2 -0 0 -1 0 -1 -2 -2 -3 -3 -4 -5 -4 -4 -3 -5 -6 -5 -2 -2 -1 -2 -4 -3 -3 -3 -3 -1 -0 0
4 3 1 -0 -8 -2 -3 -3 -3 -4 -3 -1 0 0 -0 2 1 1 0 0 -0 -1 -3 -1 -1 -2 -4 -4 -5 -3 -5 -5 -6 -6 -3 -2 -0 -2 -2 -3 -1 -3 -5 -5 -3 -1 -0
4 3 1 0 -11 -4 -3 -3 -2 -1 -0 -0 -2 0 1 1 1 1 1 -0 -1 -2 -4 -5 -3 -3 -3 -4 -6 -7 -6 -5 -4 -2 -3 -2 -1 -1 -0 -1 1 -0 -0 -0 0 -1 1
4 3 1 0 -11 -5 -4 -4 -3 -2 -0 1 1 0 2 1 1 -0 -0 -1 -1 -3 -3 -5 -5 -5 -5 -6 -6 -6 -6 -5 -4 -4 -3 -3 -1 0 0 -0 1 1 -1 0 0 0 1
4 3 1 1 -10 -7 -3 -4 -5 -1 -1 -1 0 0 1 -1 -4 -2 -0 -2 -3 -5 -4 -4 -4 -5 -6 -4 -3 -3 -0 -1 -2 -4 -4 -3 -1 0 1 0 -3 -1 -2 1 1 1 1
4 3 1 1 -10 -8 -3 -4 -3 -3 -1 -0 0 0 1 1 -2 -3 -3 -2 -2 -4 -4 -4 -5 -5 -4 -3 -4 0 -1 -1 0 -0 -2 -3 -4 -1 0 1 -1 1 0 -1 -1 3 1
4 4 2 2 -6 -9 -3 -3 -3 -3 -3 -2 -1 0 1 1 -1 -5 -3 -3 -5 -6 -4 -5 -4 -5 -5 -4 -0 -1 -3 -3 -1 -2 -1 -2 -2 -1 -0 -1 -3 -1 -1 -0 3 1 1
4 4 2 2 -4 -9 -4 -2 -3 -5 -2 -0 1 1 1 0 -0 -2 -5 -5 -6 -7 -4 -5 -4 -4 -4 -2 0 -0 -3 -2 -3 -5 -3 -2 -1 -1 -2 -1 -1 -2 -1 1 -0 -0 0
4 4 3 1 -4 -10 -4 -2 -3 -5 1 2 3 2 2 1 -0 -3 -5 -6 -6 -5 -5 -5 -4 -5 -4 -3 -0 -0 -1 -1 -3 -3 -5 -3 -5 -1 -3 -2 -4 -2 -1 -1 -1 -1 -0

GFSGBSN_850_dewp_117.txt.gz
Dewpoint
4 3 2 3 2 2 2 2 2 2 2 2 2 2 2 -3 -11 2 5 7 7 6 5 -2 -3 -5 -4 4 1 -0 -0 2 3 3 4 5 5 4 5 3 4 5 4 2 1 2 2
3 3 4 3 3 2 1 2 2 1 1 1 2 2 2 1 -6 -13 4 4 6 6 6 -2 -1 -4 -1 4 -0 -0 0 2 4 4 4 4 5 4 5 5 5 4 4 4 3 2 4
3 3 3 3 3 2 1 1 -0 1 1 2 1 2 2 2 -2 -10 -2 5 6 6 5 -1 -2 0 2 -1 -1 -0 0 2 2 3 3 4 4 3 5 4 4 4 5 4 3 3 4
3 4 3 2 3 2 2 2 1 1 1 1 2 1 2 2 -0 -6 -4 3 5 6 5 -2 -2 1 2 -2 -2 -2 -1 2 2 3 4 4 4 5 6 4 4 4 4 6 3 4 5
3 3 2 2 2 2 1 1 1 1 1 2 1 0 -1 1 1 -3 1 -4 3 5 4 -1 -1 1 3 -2 -1 -3 0 2 3 3 3 5 5 4 6 6 6 5 6 6 5 2 5
2 2 2 2 1 2 1 2 1 1 1 0 0 -0 -0 0 1 -6 3 1 1 3 -1 -1 2 3 1 -2 -1 1 1 1 1 3 4 5 4 5 6 5 6 8 7 6 7 4 5
2 2 1 2 2 1 2 1 1 1 -0 1 -1 -0 0 0 1 -4 0 2 2 2 3 1 1 -1 -1 -1 -2 -1 1 2 2 3 4 3 6 6 5 4 5 6 4 6 5 4 6
2 2 2 1 -0 1 1 1 -0 1 2 1 -2 -1 1 1 0 -3 -2 3 2 2 1 0 0 0 -1 -2 -0 1 1 2 2 4 3 5 5 3 3 4 5 3 4 7 7 4 5
2 1 2 1 -2 1 0 -1 0 1 0 -0 1 -2 1 1 1 -6 3 3 2 1 2 1 0 -0 -2 -2 0 1 1 2 1 2 2 3 1 -0 1 2 3 2 4 5 5 2 4
3 3 2 0 0 0 -0 -2 -0 1 1 -1 -2 -1 1 1 -0 2 3 2 2 2 4 2 0 -0 -1 -1 1 0 1 2 2 2 1 2 1 2 2 3 3 4 3 2 3 4 5
4 3 2 -1 -0 0 -0 -6 -1 1 -0 1 1 1 1 1 -1 -1 3 2 2 2 5 1 1 1 1 1 -0 1 0 2 2 2 0 0 1 1 2 3 1 4 2 2 3 4 3
4 3 2 -1 -1 -1 -1 -9 -1 -0 -6 -3 -0 1 1 1 0 -0 3 2 1 3 4 2 0 1 1 -1 -2 -0 -0 0 -1 1 -1 -0 -3 -1 1 0 1 1 2 2 3 4 4
4 4 2 -1 -2 -1 -1 -7 -1 -1 -7 -1 -1 2 -1 -1 1 -1 2 2 4 3 -2 3 2 1 1 -1 -1 -1 0 -0 -1 -1 -1 -1 -2 -3 -2 1 1 1 3 2 4 3 4
4 4 3 -1 -2 -1 -3 -4 -5 -2 -6 1 2 1 2 1 1 2 1 3 4 2 1 0 -0 -0 -0 -1 -1 -1 -1 0 -1 -1 -0 -0 -0 -2 -2 -1 2 2 4 6 7 7 6
4 4 3 -1 -4 -2 -3 -5 -3 -5 -4 1 1 2 1 -1 0 1 2 4 4 1 -0 1 0 0 1 -2 -1 -1 -1 -0 -0 -1 1 1 -0 -2 -3 -2 1 2 4 2 7 6 6
4 4 3 -1 -6 -3 -3 -4 -4 -10 -1 1 0 2 2 2 2 2 4 3 2 0 1 0 -0 -3 1 -0 -0 -3 0 -1 1 0 -1 -0 1 -1 -2 -2 -2 2 1 2 3 5 7
4 4 3 -0 -8 -3 -3 -3 -7 -4 0 1 2 2 3 1 1 2 4 2 1 0 0 -0 -0 -2 -2 -2 -3 -3 0 -1 0 1 -1 -2 -0 -1 -1 1 1 1 2 3 1 4 7
4 3 3 0 -10 -3 -4 -4 -11 -6 0 1 1 2 2 1 1 2 1 1 0 1 -1 -1 -2 -2 -2 -3 -2 -1 0 -1 -2 -0 0 -1 -0 -1 2 -1 -3 -1 -0 1 1 2 5
4 4 3 1 -11 -3 -4 -6 -8 -9 -0 2 2 2 1 1 3 1 -0 -0 0 1 0 -0 -1 -2 -4 -3 -1 -2 -0 -3 -3 -1 -1 -1 -1 -5 -2 -4 -4 -1 -2 -1 1 2 1
4 3 2 1 -11 -5 -6 -5 -10 -12 -1 1 1 1 0 2 2 3 1 1 1 -0 -1 -1 -2 -4 -4 -4 -5 -3 -1 -3 -4 -4 -2 -1 -1 -4 -2 -3 -3 -2 -2 -2 -1 -2 2
4 3 3 1 -7 -6 -5 -7 -10 -14 -3 -0 1 1 1 -1 1 1 -0 0 -0 -1 -3 -3 -2 -3 -4 -5 -6 -4 -3 -3 -6 -7 -4 -3 -4 -2 -3 -3 -3 -2 -3 -3 -4 -2 -1
4 3 3 1 -3 -9 -6 -3 -7 -13 -4 -4 -1 0 1 2 1 0 -0 -0 0 -1 -3 -2 -1 -3 -4 -4 -4 -3 -4 -4 -4 -5 -3 -3 -2 -4 -3 -2 -1 -3 -4 -4 -4 -2 -0
3 3 3 1 -2 -11 -6 -4 -3 -8 -7 -3 0 1 2 1 0 1 0 -0 -1 -3 -4 -5 -5 -4 -4 -5 -7 -7 -5 -4 -4 -3 -4 -3 -4 -3 -1 -1 -2 -3 -1 -1 1 -1 0
3 3 3 2 0 -12 -6 -6 -4 -2 -2 -3 -1 -1 1 0 0 -0 -0 -1 -2 -4 -4 -4 -6 -4 -6 -7 -7 -6 -5 -4 -5 -4 -3 -4 -3 -2 -2 -3 -5 -3 -1 0 0 0 0
3 3 3 3 1 -10 -8 -6 -6 -4 -3 -1 -1 -0 0 0 -2 -2 -0 -2 -4 -5 -5 -5 -5 -5 -6 -5 -3 -3 -2 -3 -2 -3 -3 -4 -2 -2 -2 -2 -4 -0 -0 1 1 -0 0
4 2 3 3 2 -3 -10 -5 -8 -5 -2 -1 -0 -0 1 1 -2 -3 -3 -2 -2 -4 -4 -5 -6 -6 -5 -3 -4 -1 -2 -3 -1 -2 -4 -3 -4 -3 -2 -1 -1 -3 -0 -1 -1 0 1
4 2 2 3 3 0 -11 -6 -5 -6 -4 -4 -2 -1 1 0 -1 -4 -3 -3 -5 -6 -4 -5 -6 -6 -6 -4 -1 -2 -4 -3 -2 -2 -1 -4 -4 -3 -2 -2 -3 -2 -1 -1 -1 -6 1
5 3 3 3 3 1 -10 -7 -3 -6 -7 -6 -2 -0 -1 -0 -0 0 -2 -5 -5 -6 -5 -5 -5 -4 -5 -3 -2 -2 -4 -3 -4 -5 -3 -3 -3 -2 -3 -2 -5 -1 -0 -1 -3 1 0
4 4 3 3 3 1 -6 -9 -3 -5 -7 -2 0 1 1 0 -0 -0 -1 -2 -5 -5 -4 -5 -4 -5 -5 -3 -3 -3 -2 -4 -5 -5 -5 -4 -5 -3 -4 -4 -7 -2 -3 -2 -1 -1 -0

GFSGBSN_850_dewp_120.txt.gz
Dewpoint
3 3 3 3 1 3 2 1 1 -0 -0 1 1 1 3 3 2 -4 -9 4 6 5 6 5 4 -3 -5 2 -4 0 -0 2 3 3 3 4 5 5 4 3 3 4 3 3 3 3 2
2 4 4 2 3 3 2 2 2 2 1 1 1 1 1 3 2 -1 -10 -1 5 6 6 5 1 -2 -3 1 -0 0 0 2 3 3 4 5 5 5 4 5 5 3 4 4 4 4 3
3 2 2 2 2 1 1 0 0 0 1 1 1 1 0 1 3 1 -4 -7 5 6 5 5 -0 -1 -1 -4 0 1 2 1 3 3 3 4 5 4 4 4 4 4 6 4 4 4 4
1 2 2 2 -0 0 -1 -0 1 1 1 1 1 1 1 -0 1 1 -2 1 1 5 5 2 -2 1 -1 -1 -1 -0 0 0 1 2 3 4 4 4 6 4 5 5 4 5 2 3 4
1 1 1 1 2 2 2 2 1 1 1 1 1 0 0 0 0 1 -3 2 -1 3 4 1 1 -1 1 -1 -2 -2 -3 0 2 3 4 4 5 4 6 6 5 4 6 6 5 3 4
3 2 2 2 1 1 1 -0 0 0 1 0 1 0 -1 1 1 1 -4 2 -1 3 1 1 4 3 0 -1 -1 1 1 2 2 3 4 5 5 5 5 6 7 6 6 5 5 4 5
4 3 3 2 -2 1 -0 -0 0 2 1 1 0 1 -2 1 1 1 -3 2 1 3 2 1 1 -0 -1 -2 -2 -2 -0 1 2 3 4 4 5 5 4 5 5 5 6 6 4 5 6
4 4 3 3 -2 0 -1 1 1 2 1 2 -1 0 -3 1 1 1 -2 2 2 2 2 0 0 1 -0 -2 -2 1 1 1 3 4 3 4 5 3 3 3 4 4 6 4 5 5 5
4 4 3 3 -3 -0 -1 -1 1 1 -2 1 1 -1 -0 1 1 -3 2 2 1 0 2 1 1 0 -2 -1 -1 1 1 2 2 2 2 2 2 1 1 1 3 3 4 4 4 2 2
4 4 4 2 -7 -1 -1 0 1 1 -3 -0 1 1 1 1 -0 1 3 2 2 2 4 2 0 0 -1 -1 1 1 1 2 2 2 1 1 1 -0 -0 0 2 4 2 2 3 4 5
4 4 4 3 -11 -2 -0 0 1 1 -5 0 1 1 -0 -3 -5 2 2 2 2 1 2 2 1 0 0 1 -0 1 0 2 2 1 -1 -5 -0 0 1 1 1 2 1 2 3 4 3
4 4 4 2 -11 -3 -1 -0 0 1 -0 2 1 0 -1 -1 -1 2 2 2 2 1 3 2 -1 1 -0 -1 -1 -1 0 1 -1 0 -1 -1 -2 -2 -0 -1 0 0 2 2 3 4 6
4 3 4 1 -11 -4 -4 -0 -0 -3 2 2 -0 -3 -4 -2 -1 2 1 1 0 0 -2 2 1 1 1 -1 -1 -1 -0 -1 0 -1 -1 -1 -2 -3 -2 0 -0 1 2 4 3 3 8
4 4 3 1 -11 -4 -4 -4 -10 -4 1 1 -1 -1 0 1 1 1 2 2 2 2 2 0 -0 -0 -0 -1 -1 -1 -1 0 -1 -0 -1 0 -1 -2 -2 -1 1 2 3 5 5 5 7
3 3 3 1 -11 -5 -5 -9 -9 -2 0 0 -2 -1 1 1 0 1 2 3 4 1 1 1 -0 0 0 -2 -1 -1 0 1 0 -0 2 1 0 -2 -2 -2 0 2 3 4 7 7 3
3 3 3 1 -11 -5 -7 -12 -4 -1 -0 0 1 2 1 1 1 1 1 3 2 -0 1 0 -0 -2 1 -1 -1 -3 1 -1 2 0 -1 -1 0 -2 -2 -2 -2 1 1 2 2 3 6
3 3 3 2 -11 -6 -9 -13 -5 -2 -1 -0 1 0 0 -0 0 0 1 2 1 -0 0 -1 -1 -1 -2 -2 -2 -1 -0 -1 -2 0 -2 -2 -2 -2 -0 0 -0 -1 0 1 1 3 2
3 3 2 2 -10 -7 -7 -11 -11 -2 -2 -2 2 1 -0 -0 0 1 -0 1 -0 0 -1 -2 -3 -3 -2 -3 -1 -0 -1 -2 -3 -1 -3 -2 -1 -1 1 -2 -4 -3 -2 0 -0 1 2
3 3 2 2 -6 -8 -6 -10 -11 -3 -2 -2 1 1 1 -0 0 0 -0 0 0 0 -0 -1 -2 -2 -5 -4 -2 -1 -1 -3 -4 -3 -2 -2 -2 -5 -5 -7 -6 -2 -3 -1 -1 -2 2
3 3 2 2 -2 -9 -8 -12 -13 -7 -2 -2 -1 0 -0 1 2 2 0 -0 1 -2 -2 -2 -3 -4 -4 -4 -4 -2 -2 -4 -5 -4 -2 -2 -3 -6 -5 -5 -3 -2 -3 -3 -2 -2 -1
3 2 2 1 -0 -11 -7 -11 -12 -10 -3 -1 -1 1 1 -0 1 1 -0 -1 -1 -2 -3 -3 -2 -4 -5 -5 -6 -4 -4 -4 -6 -5 -3 -5 -5 -2 -3 -3 -3 -2 -3 -4 -4 -1 -2
3 3 2 1 0 -9 -9 -9 -11 -12 -4 -3 -3 -0 0 0 0 0 -0 -1 -1 -1 -4 -4 -2 -4 -5 -4 -4 -4 -5 -4 -5 -4 -4 -3 -4 -5 -4 -2 -1 -2 -3 -5 -4 -2 -1
3 4 3 2 1 -4 -11 -8 -11 -13 -7 -2 -0 0 1 -0 -0 -0 -0 -0 -2 -4 -4 -5 -5 -4 -5 -6 -7 -6 -5 -4 -4 -3 -4 -3 -4 -4 -2 -2 -3 -6 -1 -4 0 -1 -0
3 4 3 3 3 1 -13 -10 -6 -11 -8 -3 -1 -1 0 0 -0 -1 -0 -1 -2 -4 -4 -4 -6 -6 -6 -6 -6 -5 -4 -4 -5 -4 -4 -4 -3 -3 -3 -5 -13 -11 -1 -0 1 -0 0
2 4 4 3 3 2 -8 -9 -9 -7 -11 -6 -5 -1 -0 -0 -1 -3 -3 -1 -3 -4 -5 -5 -6 -5 -6 -5 -4 -3 -3 -4 -2 -3 -3 -4 -3 -2 -3 -3 -6 -2 -0 1 1 -2 -1
0 4 4 3 3 3 0 -13 -8 -7 -4 -5 -4 -3 -1 -1 -2 -2 -3 -3 -2 -4 -5 -5 -6 -6 -5 -4 -4 -2 -4 -4 -3 -3 -5 -4 -4 -3 -2 -2 -5 -7 -2 -1 -3 -2 -0
-0 4 4 4 3 3 2 -10 -9 -9 -5 -3 -2 -3 -1 -1 -1 -2 -4 -3 -5 -5 -5 -5 -6 -7 -6 -4 -1 -2 -4 -4 -2 -2 -2 -5 -5 -4 -2 -2 -3 -7 -1 -1 -2 -16 1
1 3 4 4 3 4 2 -2 -11 -6 -9 -6 -4 -2 -2 -1 -1 -1 -1 -3 -5 -6 -5 -5 -6 -5 -5 -3 -2 -3 -5 -5 -3 -6 -4 -4 -3 -3 -3 -2 -8 -1 -0 -3 -6 -0 -0
3 1 4 4 4 4 3 1 -11 -7 -5 -8 -5 -1 -1 -1 -1 -1 -1 -2 -3 -3 -5 -5 -6 -5 -6 -3 -4 -4 -2 -5 -6 -7 -6 -4 -6 -5 -5 -6 -9 -1 -4 -4 -2 -1 -0

GFSGBSN_850_dewp_123.txt.gz
Dewpoint
0 1 1 2 2 3 2 2 0 1 2 2 2 2 2 2 2 3 -2 -11 5 6 6 6 4 -1 -4 -2 -7 1 3 6 6 5 4 4 5 5 5 4 3 5 3 2 2 3 3
0 2 2 2 2 3 3 2 3 2 1 1 1 2 2 2 2 3 -0 -2 -2 5 6 5 5 0 -4 -3 -2 0 1 3 3 4 3 4 4 4 4 5 4 3 4 3 3 4 4
3 3 3 3 2 1 2 2 1 2 1 1 1 1 1 -0 1 2 1 -1 -3 6 4 5 4 -1 -2 -3 1 1 2 2 3 3 4 4 5 5 4 4 4 4 5 4 4 4 4
4 4 4 3 2 2 1 -0 -0 -0 0 1 0 -0 -0 1 1 1 0 -2 -4 5 5 4 1 -1 -3 -1 0 2 1 1 2 2 3 3 4 5 4 4 5 5 5 6 2 3 3
5 4 4 3 2 0 -1 1 -0 1 1 1 1 1 1 -0 2 2 -3 2 -3 3 3 2 2 -1 -0 -2 -1 0 -0 -1 0 1 4 4 4 5 4 5 6 3 6 5 5 3 4
4 5 4 4 1 1 0 2 1 1 0 1 1 1 1 0 1 2 -3 1 2 3 2 0 2 1 -1 -1 -1 -1 -3 -1 2 3 4 4 5 5 5 6 7 5 6 3 5 4 4
3 5 4 4 1 0 1 2 1 0 -0 1 -1 1 -2 1 0 1 1 2 1 1 3 1 1 0 -1 -2 -2 -0 1 1 2 3 5 4 6 5 4 5 5 5 6 5 4 3 5
4 3 3 3 -1 1 -0 1 1 1 -0 1 1 -1 -0 0 1 -3 2 1 2 -0 1 0 0 -0 -1 -2 -1 1 0 1 2 4 3 5 6 3 2 3 4 5 5 5 3 3 2
4 4 2 1 -2 1 1 1 1 1 0 2 1 0 0 1 -2 2 2 2 1 1 1 1 1 -0 -1 -1 -1 1 2 2 2 3 3 4 1 0 -0 -1 2 2 3 3 3 2 1
4 4 2 0 -8 -0 2 1 0 1 1 0 -1 0 -0 -0 1 2 1 2 1 2 1 2 0 -0 -0 -1 0 1 1 1 2 2 1 1 1 -0 -1 -0 1 3 1 2 2 3 4
4 3 2 1 -9 -4 2 -1 -0 1 1 1 -2 -7 -5 -2 2 -0 -0 2 2 1 1 -0 0 -0 -1 1 0 -0 0 1 3 2 -1 -3 -1 -0 0 -0 -0 2 0 2 2 4 4
3 3 2 1 -8 -6 -1 -11 -3 -0 -0 0 -3 -2 -2 -1 0 0 1 1 1 -3 3 1 -1 1 -0 -1 -1 -1 -1 1 0 -0 -2 -1 -2 -2 -2 -2 -1 0 2 2 2 3 5
3 2 2 -0 -8 -7 -11 -8 -2 -1 0 -1 -3 -3 -2 0 1 0 1 1 -1 2 -2 1 1 1 1 -1 -1 -1 -2 -0 1 -1 -2 -2 -2 -3 -3 0 -0 1 2 2 2 6 7
3 2 1 -1 -9 -8 -12 -5 -2 -1 -1 -2 0 1 0 1 1 1 1 -1 1 1 1 -0 -0 -1 -1 -1 -1 -1 -2 1 -0 -1 -1 0 -1 -2 -2 -1 1 2 5 2 4 7 6
3 2 1 -1 -10 -7 -11 -8 -2 -2 -1 -2 1 1 1 1 1 1 1 2 1 1 1 1 -1 0 -1 -2 -1 -2 -0 0 0 0 3 1 0 -3 -3 -2 -0 2 4 4 5 3 2
3 2 1 -2 -10 -7 -11 -13 -2 -3 -3 -1 -0 1 0 0 1 1 0 3 2 -0 0 -1 -1 -2 0 -1 -2 -1 -0 -1 0 -0 -1 -2 0 -3 -1 -3 -4 -1 -0 1 0 0 4
1 2 1 -1 -10 -8 -10 -14 -3 -4 -4 -3 -2 -1 -1 -1 -1 -1 0 1 1 -0 0 -2 -2 -2 -2 -2 -2 -1 -2 -2 -3 -1 -2 -2 -3 -3 -2 -1 -0 -2 -0 1 1 3 -0
-3 2 2 0 -7 -9 -10 -15 -7 -2 -4 -5 -2 -0 -1 -2 -1 -1 -1 0 -0 -0 -1 -3 -3 -3 -2 -3 -1 -1 -2 -2 -3 -2 -3 -2 -2 -1 1 -1 -5 -4 -2 -0 1 1 2
-5 2 2 1 -3 -11 -10 -14 -13 -5 -3 -5 -2 -2 -1 -2 1 -0 -1 -0 -0 -0 -1 -2 -2 -3 -6 -4 -4 -1 -2 -4 -4 -3 -1 -2 -4 -6 -8 -8 -6 -3 -3 -2 -3 -3 2
-4 2 2 1 -1 -10 -9 -15 -17 -7 -5 -3 -2 -1 -3 -0 1 1 1 -1 -0 -3 -2 -3 -5 -5 -5 -5 -5 -3 -2 -4 -6 -5 -1 -3 -3 -6 -7 -6 -4 -1 -2 -4 -3 -3 -2
-4 -1 2 2 0 -6 -11 -11 -17 -14 -5 -4 -2 0 0 0 0 -0 -1 -1 -1 -2 -4 -4 -3 -4 -4 -6 -6 -4 -5 -5 -7 -4 -4 -7 -6 -3 -3 -3 -2 -2 -2 -4 -4 -1 -3
-2 -3 3 2 1 -2 -12 -10 -11 -15 -7 -4 -3 -1 -0 -0 0 -1 -1 -0 -2 -2 -4 -4 -3 -4 -5 -5 -5 -6 -5 -4 -6 -5 -5 -5 -4 -5 -6 -2 -1 -0 -3 -4 -4 -2 -1
-1 -3 2 3 2 1 -5 -11 -9 -13 -9 -3 -2 -1 -0 -1 -1 -1 -0 -0 -2 -4 -5 -5 -5 -4 -6 -6 -7 -5 -5 -4 -4 -3 -5 -4 -5 -4 -5 -3 -5 -10 -4 -4 -1 -1 -1
1 -1 1 4 2 2 1 -12 -10 -10 -9 -3 -2 -1 -1 -1 -1 -1 -0 -1 -3 -4 -4 -5 -6 -6 -6 -6 -6 -5 -4 -4 -5 -4 -5 -4 -4 -3 -4 -5 -16 -14 -3 -2 -0 -0 -1
3 -0 0 4 3 2 2 -2 -11 -9 -11 -5 -4 -2 -2 -1 -1 -3 -3 -1 -3 -4 -5 -5 -6 -6 -6 -5 -4 -3 -3 -7 -3 -3 -4 -5 -3 -3 -4 -3 -8 -6 -1 0 0 -2 -2
4 1 -0 4 4 3 2 1 -12 -10 -8 -9 -5 -3 -1 -2 -2 -3 -4 -3 -2 -3 -5 -5 -6 -6 -6 -5 -4 -3 -5 -5 -5 -4 -6 -5 -5 -4 -3 -6 -12 -13 -3 -1 -4 -8 -3
6 3 0 3 4 3 3 2 -2 -11 -10 -6 -7 -5 -2 -1 -2 -3 -4 -3 -5 -5 -5 -5 -7 -7 -7 -4 -1 -2 -6 -5 -4 -3 -4 -5 -5 -6 -3 -3 -6 -9 -1 -3 -8 -21 -1
7 6 1 1 4 4 3 3 1 -10 -8 -8 -5 -5 -4 -2 -3 -2 -3 -4 -5 -5 -5 -6 -7 -6 -6 -4 -2 -3 -5 -6 -3 -6 -5 -5 -4 -4 -3 -3 -14 -3 -1 -4 -9 -2 -2
7 7 4 1 4 4 4 3 2 -2 -10 -6 -7 -5 -3 -2 -2 -2 -2 -2 -2 -5 -6 -5 -7 -5 -7 -4 -4 -4 -1 -6 -5 -8 -6 -4 -8 -7 -6 -8 -12 -2 -3 -4 -5 -3 -2

GFSGBSN_850_dewp_126.txt.gz
Dewpoint
4 4 4 4 3 1 2 1 1 -0 1 1 1 1 0 1 2 2 3 -1 4 6 6 6 5 0 -4 -4 -3 2 3 6 6 4 4 4 4 3 5 4 4 5 3 2 2 2 2
5 5 5 4 3 2 1 1 0 1 2 2 2 -0 1 0 2 2 2 1 -1 6 6 5 4 -1 -4 -5 -0 4 4 5 5 5 5 4 3 3 4 4 4 4 4 4 3 3 3
5 5 5 4 3 1 1 1 1 1 2 1 2 2 0 0 1 2 2 -1 0 6 6 5 2 -1 -3 -0 1 2 2 3 4 3 3 3 4 5 4 4 4 4 5 4 3 3 4
3 4 2 3 2 1 1 2 1 2 2 1 1 1 1 -2 0 1 1 -0 -1 5 3 5 2 -1 -1 0 0 1 1 2 3 3 3 4 4 4 5 4 4 5 5 5 2 2 3
4 4 1 1 2 2 1 1 1 2 2 1 -2 1 -0 -1 1 1 -1 1 3 3 4 3 -0 -1 -1 -1 0 1 1 0 0 1 2 4 4 5 4 5 4 4 6 5 4 2 3
4 3 1 1 1 2 1 2 1 2 1 0 0 -1 -1 -1 1 -2 1 -0 2 2 0 0 0 -1 -1 -1 -0 -1 -1 -1 2 3 3 4 4 5 5 5 7 6 7 6 5 2 3
4 2 -1 2 -2 2 2 2 1 1 1 -0 -3 -1 -0 1 -2 1 -1 1 0 0 -0 1 0 0 -1 -2 -1 1 -2 0 2 3 4 3 5 5 4 4 4 6 6 6 5 2 4
4 3 2 2 -2 2 1 2 1 1 -0 1 -2 0 1 1 -2 1 1 0 -0 0 1 1 -0 -1 -1 -2 0 1 -0 1 2 3 3 4 4 2 2 2 3 2 5 4 3 2 1
4 2 1 1 -5 -1 -0 1 1 0 -0 -1 0 -0 -0 1 2 1 0 -0 -0 1 1 1 -0 -0 -1 -2 -0 1 1 2 2 3 3 4 2 0 2 0 -0 1 2 2 3 1 -0
3 2 1 -5 -8 -11 -4 -2 -0 -1 -0 -3 -2 -2 -2 1 0 1 1 1 1 2 0 0 0 -1 -1 -1 -0 1 1 1 1 3 1 1 0 -0 -0 -1 -1 2 -1 1 2 2 3
3 2 0 -7 -8 -12 -3 -1 -1 -1 -2 -2 -2 -1 -0 -2 -0 -1 1 0 1 1 -1 -2 0 -1 -1 0 0 -1 0 1 3 1 -0 -1 -2 -0 0 -1 -1 1 -0 1 2 3 4
3 1 -1 -8 -8 -12 -7 -1 -1 -2 -3 -3 -1 -1 -1 -3 -2 0 1 1 1 -3 -0 0 -0 -0 -1 -2 -1 -1 -1 0 1 -2 -3 0 -2 -2 -1 -2 -1 0 1 1 2 3 4
2 2 -1 -9 -10 -11 -13 -2 -2 -4 -2 0 1 0 0 -0 -0 -0 0 0 -2 -1 -2 -1 0 -0 -0 -1 -2 -2 -2 -0 1 -1 -2 -2 -2 -4 -3 -0 -1 1 1 1 2 6 3
-2 2 -0 -8 -11 -10 -13 -4 -3 -4 -1 0 1 1 0 1 1 1 1 -2 0 1 2 -1 -0 -1 -1 -1 -1 -1 -1 -0 -1 -0 -1 -0 -2 -3 -3 -1 1 2 3 -0 5 5 3
-6 2 1 -6 -12 -11 -14 -7 -3 -3 -2 -2 -1 -1 -1 -1 1 1 0 1 0 0 1 1 -1 -0 -1 -2 -1 -1 -0 -1 0 0 2 -0 -1 -3 -3 -2 -1 1 3 3 3 -1 1
-7 1 1 -1 -12 -13 -14 -11 -4 -3 -3 -3 -4 -3 -2 -3 -2 -1 -0 2 1 0 0 -1 -1 -2 -0 -2 -3 -2 -2 -1 -1 -1 -1 -2 0 -4 -2 -4 -4 -1 -1 0 0 -0 4
-8 -4 2 0 -8 -13 -15 -11 -5 -3 -4 -4 -4 -3 -2 -5 -4 -2 -0 1 0 -1 -1 -2 -2 -2 -3 -2 -2 -1 -2 -3 -3 -2 -3 -2 -3 -4 -3 -3 -2 -2 -1 0 1 3 -0
-0 -5 2 1 -4 -12 -15 -14 -7 -5 -6 -5 -4 -1 -3 -7 -1 -1 -1 0 -0 -1 -2 -2 -3 -4 -3 -3 -2 -1 -2 -3 -3 -3 -3 -3 -2 -2 -2 -2 -4 -4 -3 -1 -0 1 1
-0 -5 -2 2 -1 -11 -15 -18 -14 -8 -7 -6 -4 -3 -2 -6 -1 0 -1 -2 -1 -2 -2 -3 -3 -3 -6 -4 -3 -2 -3 -4 -5 -3 -1 -2 -5 -7 -8 -7 -6 -3 -4 -2 -3 -3 2
-1 -3 -4 2 0 -7 -13 -15 -17 -12 -8 -6 -5 -2 -3 -2 1 -1 -0 -1 -2 -4 -3 -3 -5 -6 -5 -6 -5 -4 -4 -4 -5 -3 -1 -4 -4 -7 -7 -6 -4 -1 -3 -4 -3 -5 -3
6 -1 -3 -0 2 -1 -11 -12 -15 -16 -7 -6 -4 -1 -0 -1 -0 -1 -2 -2 -2 -2 -5 -5 -4 -5 -5 -6 -7 -5 -6 -5 -7 -5 -4 -7 -7 -3 -4 -4 -2 -2 -2 -3 -4 -2 -4
8 2 -2 -3 2 1 -2 -12 -12 -16 -10 -4 -4 -1 -0 -1 -0 -1 -1 -0 -3 -4 -4 -5 -4 -4 -6 -6 -6 -5 -6 -5 -5 -5 -6 -5 -5 -6 -6 -3 -2 -1 -2 -3 -4 -3 -1
8 6 0 -2 1 2 1 -5 -11 -11 -13 -4 -2 -2 -2 -1 -1 -1 -1 -1 -2 -4 -5 -5 -6 -4 -7 -6 -6 -6 -5 -5 -4 -3 -5 -4 -5 -5 -7 -4 -6 -11 -7 -3 -3 -3 -2
8 6 2 -1 -1 3 2 1 -11 -10 -12 -6 -3 -1 -2 -2 -1 -1 -0 -1 -3 -4 -5 -5 -6 -6 -7 -6 -5 -5 -4 -4 -4 -4 -5 -4 -4 -4 -4 -8 -20 -15 -5 -4 -3 -1 -2
8 6 5 0 -0 2 2 2 0 -11 -10 -6 -4 -2 -2 -2 -2 -3 -2 -1 -3 -3 -5 -5 -7 -6 -6 -5 -4 -4 -5 -7 -4 -3 -4 -5 -4 -4 -4 -5 -12 -6 -2 -0 -1 -7 -2
8 7 6 4 1 1 3 2 2 -5 -10 -10 -6 -4 -2 -2 -2 -3 -3 -2 -2 -3 -5 -5 -6 -6 -6 -5 -4 -3 -5 -6 -6 -5 -6 -5 -5 -5 -3 -8 -17 -19 -4 -1 -4 -15 -7
8 8 6 6 2 1 4 3 3 2 -10 -9 -7 -5 -3 -2 -4 -3 -4 -3 -3 -5 -5 -5 -7 -6 -7 -4 -1 -2 -6 -5 -4 -4 -6 -6 -6 -7 -4 -4 -9 -12 -2 -3 -11 -22 -4
7 8 8 6 5 2 2 4 3 3 -1 -9 -8 -5 -4 -3 -5 -3 -3 -4 -5 -5 -5 -6 -7 -6 -6 -4 -3 -3 -4 -7 -4 -6 -6 -8 -5 -5 -4 -3 -17 -8 -1 -6 -14 -10 -4
7 7 7 7 6 5 2 4 4 4 2 -7 -7 -7 -4 -2 -3 -3 -3 -2 -5 -5 -5 -6 -7 -6 -8 -6 -4 -4 -2 -6 -5 -8 -7 -6 -8 -9 -7 -10 -15 -4 -6 -7 -7 -7 -4

GFSGBSN_850_dewp_129.txt.gz
Dewpoint
4 4 2 2 4 2 2 0 1 1 2 0 1 2 1 2 2 2 2 2 5 4 5 6 5 2 -3 -4 4 3 5 6 5 5 5 3 4 3 4 4 4 5 3 3 2 2 3
5 3 2 2 3 1 1 1 1 2 1 1 1 2 0 -1 1 2 1 2 4 6 5 5 4 -1 -3 -2 4 3 4 6 4 5 4 4 3 2 4 4 4 4 4 4 4 3 3
5 3 1 3 1 2 2 2 2 1 2 1 1 1 -0 -1 1 2 -1 3 5 6 5 3 -1 -3 -0 1 4 3 4 4 4 4 4 3 4 4 4 4 4 4 5 4 3 3 3
4 2 1 3 2 2 2 2 1 2 0 1 1 -1 -2 -1 1 -1 1 2 3 5 5 2 -1 -2 -0 1 2 2 2 3 3 3 4 4 4 4 5 4 3 4 5 6 1 2 2
4 2 3 2 2 2 2 2 1 2 -1 -1 -2 -1 -0 1 -1 1 0 4 4 4 2 0 -2 -2 -0 -1 1 1 1 -0 0 1 1 3 4 4 4 4 5 4 5 5 4 2 3
3 2 3 -0 2 2 2 1 1 -0 -1 -2 -1 1 2 -0 -0 1 3 2 0 -1 -0 -1 -1 -2 -1 -1 -0 0 1 -0 2 2 4 4 4 4 4 5 5 6 6 5 4 3 2
2 1 -1 -6 2 2 2 -1 -1 -2 0 -1 1 1 0 0 1 2 1 1 0 -0 -0 0 0 -1 -2 -1 -0 -0 -2 -1 2 2 3 3 4 5 3 3 3 5 5 5 5 1 3
3 -0 -10 -9 -2 1 -1 -2 -3 -6 -2 0 -0 -1 -2 1 -0 -2 -3 -2 1 1 1 0 -1 -1 -2 -1 1 -0 1 1 2 3 2 3 3 1 2 2 2 2 2 2 1 1 1
4 -1 -9 -9 -11 -2 -2 -4 -8 -8 -5 -1 -0 0 -1 0 -0 -2 -2 1 1 1 -0 -0 -0 -1 -1 -0 0 2 1 1 2 3 3 3 2 1 1 1 -0 -0 1 1 1 1 -1
4 -2 -8 -10 -12 -5 -1 -4 -3 -8 -6 -3 -4 0 1 0 -0 -1 0 1 2 0 -1 -1 -0 -2 -1 -0 -0 1 1 1 1 3 1 1 -0 -1 -0 -0 -1 2 -1 0 2 2 2
2 0 -8 -11 -11 -9 -3 -3 -2 -2 -3 -3 -2 -3 -3 -1 0 1 1 1 1 -1 -2 -3 -1 -1 -1 -0 -1 -1 0 1 2 2 1 0 -2 -1 0 -1 -1 1 2 2 2 3 4
-2 1 -6 -12 -11 -11 -4 -3 -1 -1 -2 -1 -3 -4 -4 -2 -1 -0 -0 0 -0 -3 -2 -1 -1 -0 -2 -2 -2 -1 -2 -1 0 -3 -4 0 -2 -2 -2 -2 -1 0 2 0 1 4 5
-5 2 -2 -11 -12 -13 -6 -3 -1 -1 -1 -2 -1 -1 -3 -2 -2 -1 -1 -2 -2 0 -3 -0 1 -1 -1 -1 -1 -2 -1 -0 1 1 -1 -2 -3 -5 -3 -0 -0 1 1 3 3 4 3
-5 -1 0 -8 -13 -13 -9 -4 -3 -2 -2 -2 -2 -2 -2 -2 -2 -2 -1 -3 0 1 1 -1 -0 -1 -1 -1 -2 -1 -2 -2 -1 -0 -1 1 -2 -3 -3 -1 1 1 3 1 4 5 3
1 -4 2 -4 -14 -14 -11 -5 -4 -3 -3 -4 -4 -3 -3 -3 -2 -1 -1 2 1 1 0 2 -2 -1 -1 -3 -2 -2 -2 -1 -0 0 2 -0 -2 -4 -3 -3 -2 1 3 2 2 -1 1
-2 -3 0 -0 -11 -16 -14 -7 -5 -5 -6 -5 -5 -5 -3 -4 -3 -1 -0 2 1 0 0 -1 -1 -2 -1 -2 -3 -2 -4 -2 -3 -2 -1 -1 0 -4 -3 -5 -4 -1 -1 2 1 1 3
4 -0 -4 2 -5 -16 -16 -11 -7 -6 -7 -6 -5 -4 -3 -4 -4 -3 -1 0 0 -1 -1 -2 -2 -2 -3 -2 -2 -2 -3 -5 -3 -3 -3 -2 -2 -4 -4 -2 -1 -2 -1 0 1 2 2
8 2 -2 1 -0 -12 -17 -17 -12 -8 -8 -7 -5 -3 -3 -5 -2 -1 -1 -0 -1 -1 -3 -2 -3 -4 -3 -4 -3 -2 -2 -4 -4 -3 -3 -3 -3 -1 -5 -2 -4 -4 -3 -0 1 2 0
8 6 3 -3 2 -4 -15 -17 -18 -11 -8 -6 -6 -5 -5 -10 -3 -2 -2 -2 -2 -3 -3 -5 -4 -4 -6 -5 -3 -3 -3 -4 -6 -4 -1 -2 -5 -7 -8 -7 -6 -4 -4 -2 -3 -3 2
8 8 4 0 1 0 -9 -15 -18 -18 -9 -7 -5 -3 -4 -5 -1 -2 -2 -2 -3 -4 -3 -3 -6 -7 -6 -6 -6 -5 -6 -5 -5 -4 -1 -4 -5 -7 -6 -6 -4 -2 -3 -4 -3 -3 -2
7 8 7 3 -2 2 -1 -12 -14 -17 -16 -6 -5 -2 -2 -2 -1 -2 -2 -3 -3 -4 -5 -5 -4 -6 -6 -6 -8 -7 -7 -7 -8 -5 -4 -8 -8 -4 -4 -5 -3 -2 -2 -3 -4 -2 -2
7 8 8 6 0 1 1 -2 -13 -12 -17 -7 -4 -2 -1 -1 -0 -2 -2 -1 -4 -5 -5 -6 -5 -5 -7 -7 -9 -10 -6 -6 -6 -5 -6 -6 -7 -6 -4 -3 -2 -1 -2 -2 -3 -3 -1
7 8 8 7 3 -2 2 1 -3 -12 -13 -7 -3 -2 -2 -1 -2 -2 -3 -2 -3 -4 -5 -5 -6 -5 -6 -8 -7 -7 -6 -5 -5 -4 -5 -5 -5 -5 -6 -5 -6 -10 -8 -2 -4 -4 -2
7 8 8 8 6 0 -0 2 1 -8 -11 -12 -4 -2 -2 -3 -2 -2 -1 -1 -2 -4 -5 -5 -6 -5 -8 -6 -5 -5 -4 -5 -5 -5 -5 -5 -4 -4 -3 -8 -17 -14 -4 -4 -5 -4 -3
7 7 7 7 7 5 -0 3 2 1 -11 -10 -7 -2 -2 -3 -2 -3 -1 -1 -2 -4 -3 -5 -7 -7 -6 -5 -4 -5 -6 -7 -4 -4 -4 -6 -4 -5 -4 -5 -13 -9 -6 -1 -1 -7 -3
7 7 7 7 7 6 2 0 3 2 -1 -11 -10 -5 -3 -2 -3 -3 -2 -2 -2 -3 -4 -5 -7 -6 -6 -5 -4 -5 -7 -7 -6 -5 -6 -6 -6 -6 -4 -9 -17 -23 -6 -2 -5 -13 -8
6 6 7 7 7 6 6 2 3 3 2 -4 -10 -8 -4 -3 -5 -3 -4 -3 -3 -4 -5 -5 -6 -6 -6 -5 -2 -3 -6 -6 -4 -6 -5 -6 -6 -6 -4 -4 -10 -15 -3 -3 -14 -21 -9
3 5 6 7 7 6 6 5 2 4 4 2 -6 -8 -5 -4 -6 -6 -4 -4 -4 -5 -5 -6 -7 -6 -6 -5 -3 -4 -5 -7 -5 -7 -7 -8 -5 -4 -4 -3 -14 -10 -1 -6 -16 -16 -7
3 3 4 6 7 6 6 6 4 4 4 4 -1 -7 -6 -2 -5 -5 -5 -6 -4 -5 -5 -7 -7 -7 -8 -7 -5 -5 -3 -6 -6 -10 -8 -7 -9 -8 -8 -10 -17 -6 -10 -10 -9 -11 -9